Observation data for Earth on 08/20/2019      Previous  Date  Next       Current Mesonet Observations  Soil Data  Daily Summary Page  Observations in Plain Language
KEA1 200500Z 13004KT 26/13 A3011 RMK A01 T02630133  RH  045%=      5-min Rain = 0
KEA1 200501Z 12006KT 26/13 A3011 RMK A01 T02630133  RH  045%=      5-min Rain = 0
KEA1 200502Z 12007KT 26/13 A3012 RMK A01 T02620132  RH  045%=      5-min Rain = 0
KEA1 200503Z 13007KT 26/13 A3012 RMK A01 T02620132  RH  044%=      5-min Rain = 0
KEA1 200504Z 14006KT 26/13 A3011 RMK A01 T02610131  RH  044%=      5-min Rain = 0
KEA1 200505Z 15005KT 26/13 A3011 RMK A01 T02610130  RH  044%=      5-min Rain = 0
KEA1 200506Z 15005KT 26/13 A3011 RMK A01 T02620131  RH  044%=      5-min Rain = 0
KEA1 200507Z 15005KT 26/13 A3011 RMK A01 T02610131  RH  044%=      5-min Rain = 0
KEA1 200508Z 14006KT 26/13 A3011 RMK A01 T02610131  RH  044%=      5-min Rain = 0
KEA1 200509Z 13007KT 26/13 A3011 RMK A01 T02600131  RH  045%=      5-min Rain = 0
KEA1 200510Z 10006KT 26/13 A3012 RMK A01 T02600131  RH  045%=      5-min Rain = 0
KEA1 200511Z 10005KT 26/13 A3012 RMK A01 T02580131  RH  045%=      5-min Rain = 0
KEA1 200512Z 10005KT 26/13 A3011 RMK A01 T02560130  RH  046%=      5-min Rain = 0
KEA1 200513Z 11005KT 26/13 A3011 RMK A01 T02560130  RH  046%=      5-min Rain = 0
KEA1 200514Z 12006KT 26/13 A3011 RMK A01 T02560129  RH  045%=      5-min Rain = 0
KEA1 200515Z 12007KT 26/13 A3011 RMK A01 T02570129  RH  045%=      5-min Rain = 0
KEA1 200516Z 12007KT 26/13 A3011 RMK A01 T02580129  RH  045%=      5-min Rain = 0
KEA1 200517Z 13007KT 26/13 A3011 RMK A01 T02590129  RH  045%=      5-min Rain = 0
KEA1 200518Z 14007KT 26/13 A3011 RMK A01 T02600130  RH  044%=      5-min Rain = 0
KEA1 200519Z 14006KT 26/13 A3011 RMK A01 T02600129  RH  044%=      5-min Rain = 0
KEA1 200520Z 14006KT 26/13 A3011 RMK A01 T02610130  RH  044%=      5-min Rain = 0
KEA1 200521Z 14006KT 26/13 A3011 RMK A01 T02610130  RH  044%=      5-min Rain = 0
KEA1 200522Z 14006KT 26/13 A3011 RMK A01 T02610130  RH  044%=      5-min Rain = 0
KEA1 200523Z 14007KT 26/13 A3011 RMK A01 T02610131  RH  044%=      5-min Rain = 0
KEA1 200524Z 14007KT 26/13 A3011 RMK A01 T02600130  RH  045%=      5-min Rain = 0
KEA1 200525Z 15006KT 26/13 A3011 RMK A01 T02600130  RH  045%=      5-min Rain = 0
KEA1 200526Z 15007KT 26/13 A3011 RMK A01 T02590131  RH  045%=      5-min Rain = 0
KEA1 200527Z 15007KT 26/13 A3011 RMK A01 T02590130  RH  045%=      5-min Rain = 0
KEA1 200528Z 15008KT 26/13 A3011 RMK A01 T02580130  RH  045%=      5-min Rain = 0
KEA1 200529Z 15008KT 26/13 A3011 RMK A01 T02580130  RH  045%=      5-min Rain = 0
KEA1 200530Z 15008KT 26/13 A3011 RMK A01 T02580130  RH  045%=      5-min Rain = 0
KEA1 200531Z 15008KT 26/13 A3011 RMK A01 T02590130  RH  045%=      5-min Rain = 0
KEA1 200532Z 15008KT 26/13 A3011 RMK A01 T02620130  RH  044%=      5-min Rain = 0
KEA1 200533Z 15009KT 26/13 A3011 RMK A01 T02640130  RH  043%=      5-min Rain = 0
KEA1 200534Z 15008KT 27/13 A3011 RMK A01 T02660130  RH  043%=      5-min Rain = 0
KEA1 200535Z 15009KT 27/13 A3011 RMK A01 T02670131  RH  043%=      5-min Rain = 0
KEA1 200536Z 15009KT 27/13 A3011 RMK A01 T02690132  RH  043%=      5-min Rain = 0
KEA1 200537Z 14008KT 27/13 A3011 RMK A01 T02700132  RH  043%=      5-min Rain = 0
KEA1 200538Z 15009KT 27/13 A3011 RMK A01 T02710133  RH  042%=      5-min Rain = 0
KEA1 200539Z 15009KT 27/13 A3011 RMK A01 T02730133  RH  042%=      5-min Rain = 0
KEA1 200540Z 15009KT 27/13 A3011 RMK A01 T02730134  RH  042%=      5-min Rain = 0
KEA1 200541Z 15008KT 27/14 A3011 RMK A01 T02740135  RH  042%=      5-min Rain = 0
KEA1 200542Z 15009KT 28/14 A3011 RMK A01 T02750135  RH  042%=      5-min Rain = 0
KEA1 200543Z 15009KT 28/14 A3011 RMK A01 T02750136  RH  042%=      5-min Rain = 0
KEA1 200544Z 15009KT 28/14 A3011 RMK A01 T02760136  RH  042%=      5-min Rain = 0
KEA1 200545Z 15009KT 28/14 A3011 RMK A01 T02760137  RH  042%=      5-min Rain = 0
KEA1 200546Z 15008KT 28/14 A3011 RMK A01 T02770137  RH  042%=      5-min Rain = 0
KEA1 200547Z 15008KT 28/14 A3011 RMK A01 T02770137  RH  042%=      5-min Rain = 0
KEA1 200548Z 14009KT 28/14 A3011 RMK A01 T02770138  RH  042%=      5-min Rain = 0
KEA1 200549Z 14008KT 28/14 A3011 RMK A01 T02770138  RH  042%=      5-min Rain = 0
KEA1 200550Z 15009KT 28/14 A3011 RMK A01 T02770138  RH  042%=      5-min Rain = 0
KEA1 200551Z 15008KT 28/14 A3011 RMK A01 T02770138  RH  042%=      5-min Rain = 0
KEA1 200552Z 15009KT 28/14 A3011 RMK A01 T02770138  RH  042%=      5-min Rain = 0
KEA1 200553Z 15008KT 28/14 A3011 RMK A01 T02780139  RH  043%=      5-min Rain = 0
KEA1 200554Z 15008KT 28/14 A3011 RMK A01 T02780139  RH  042%=      5-min Rain = 0
KEA1 200555Z 15008KT 28/14 A3011 RMK A01 T02780140  RH  043%=      5-min Rain = 0
KEA1 200556Z 16008KT 28/14 A3011 RMK A01 T02780140  RH  043%=      5-min Rain = 0
KEA1 200557Z 16008KT 28/14 A3011 RMK A01 T02780140  RH  043%=      5-min Rain = 0
KEA1 200558Z 16008KT 28/14 A3011 RMK A01 T02780140  RH  043%=      5-min Rain = 0
KEA1 200559Z 16008KT 28/14 A3011 RMK A01 T02780141  RH  043%=      5-min Rain = 0
KEA1 200600Z 16008KT 28/14 A3011 RMK A01 T02780141  RH  043%=      5-min Rain = 0
KEA1 200601Z 16010KT 28/14 A3011 RMK A01 T02780142  RH  043%=      5-min Rain = 0
KEA1 200602Z 16008KT 28/14 A3011 RMK A01 T02790142  RH  043%=      5-min Rain = 0
KEA1 200603Z 16010KT 28/14 A3011 RMK A01 T02800142  RH  043%=      5-min Rain = 0
KEA1 200604Z 16008KT 28/14 A3011 RMK A01 T02800142  RH  043%=      5-min Rain = 0
KEA1 200605Z 16009KT 28/14 A3011 RMK A01 T02800142  RH  043%=      5-min Rain = 0
KEA1 200606Z 16012KT 28/14 A3011 RMK A01 T02800143  RH  043%=      5-min Rain = 0
KEA1 200607Z 16010KT 28/14 A3011 RMK A01 T02810143  RH  043%=      5-min Rain = 0
KEA1 200608Z 16009KT 28/14 A3011 RMK A01 T02820143  RH  043%=      5-min Rain = 0
KEA1 200609Z 16012KT 28/14 A3011 RMK A01 T02820143  RH  043%=      5-min Rain = 0
KEA1 200610Z 16010KT 28/14 A3011 RMK A01 T02820144  RH  043%=      5-min Rain = 0
KEA1 200611Z 16011KT 28/14 A3011 RMK A01 T02820144  RH  043%=      5-min Rain = 0
KEA1 200612Z 16011KT 28/14 A3011 RMK A01 T02820144  RH  043%=      5-min Rain = 0
KEA1 200613Z 16010KT 28/14 A3011 RMK A01 T02820144  RH  043%=      5-min Rain = 0
KEA1 200614Z 16012KT 28/14 A3011 RMK A01 T02820144  RH  043%=      5-min Rain = 0
KEA1 200615Z 15012KT 28/14 A3011 RMK A01 T02820144  RH  043%=      5-min Rain = 0
KEA1 200616Z 15011KT 28/15 A3011 RMK A01 T02820145  RH  043%=      5-min Rain = 0
KEA1 200617Z 16011KT 28/14 A3011 RMK A01 T02820144  RH  043%=      5-min Rain = 0
KEA1 200618Z 15012KT 28/15 A3011 RMK A01 T02820145  RH  043%=      5-min Rain = 0
KEA1 200619Z 15010KT 28/15 A3011 RMK A01 T02820145  RH  043%=      5-min Rain = 0
KEA1 200620Z 15010KT 28/15 A3011 RMK A01 T02820145  RH  043%=      5-min Rain = 0
KEA1 200621Z 16011KT 28/15 A3011 RMK A01 T02810145  RH  043%=      5-min Rain = 0
KEA1 200622Z 15012KT 28/15 A3011 RMK A01 T02810145  RH  043%=      5-min Rain = 0
KEA1 200623Z 16011KT 28/15 A3011 RMK A01 T02810145  RH  043%=      5-min Rain = 0
KEA1 200624Z 15011KT 28/15 A3011 RMK A01 T02810145  RH  043%=      5-min Rain = 0
KEA1 200625Z 16010KT 28/15 A3011 RMK A01 T02810145  RH  043%=      5-min Rain = 0
KEA1 200626Z 15011KT 28/15 A301 RMK A01 T02800145  RH  044%=      5-min Rain = 0
KEA1 200627Z 15012KT 28/15 A301 RMK A01 T02800145  RH  044%=      5-min Rain = 0
KEA1 200628Z 15010KT 28/15 A301 RMK A01 T02800145  RH  044%=      5-min Rain = 0
KEA1 200629Z 15010KT 28/15 A301 RMK A01 T02800145  RH  044%=      5-min Rain = 0
KEA1 200630Z 15011KT 28/15 A301 RMK A01 T02790145  RH  044%=      5-min Rain = 0
KEA1 200631Z 16012KT 28/15 A301 RMK A01 T02790145  RH  044%=      5-min Rain = 0
KEA1 200632Z 16012KT 28/15 A301 RMK A01 T02790145  RH  044%=      5-min Rain = 0
KEA1 200633Z 15012KT 28/15 A301 RMK A01 T02790145  RH  044%=      5-min Rain = 0
KEA1 200634Z 15013KT 28/15 A301 RMK A01 T02780145  RH  044%=      5-min Rain = 0
KEA1 200635Z 15013KT 28/15 A301 RMK A01 T02790146  RH  044%=      5-min Rain = 0
KEA1 200636Z 15013KT 28/15 A301 RMK A01 T02790146  RH  044%=      5-min Rain = 0
KEA1 200637Z 16014KT 28/15 A301 RMK A01 T02790146  RH  044%=      5-min Rain = 0
KEA1 200638Z 15011KT 28/15 A3011 RMK A01 T02790146  RH  044%=      5-min Rain = 0
KEA1 200639Z 15012KT 28/15 A3011 RMK A01 T02800146  RH  044%=      5-min Rain = 0
KEA1 200640Z 15011KT 28/15 A3011 RMK A01 T02790146  RH  044%=      5-min Rain = 0
KEA1 200641Z 15010KT 28/15 A3011 RMK A01 T02790146  RH  044%=      5-min Rain = 0
KEA1 200642Z 15012KT 28/15 A3011 RMK A01 T02780146  RH  044%=      5-min Rain = 0
KEA1 200643Z 16012KT 28/15 A3011 RMK A01 T02780146  RH  044%=      5-min Rain = 0
KEA1 200644Z 15010KT 28/15 A3011 RMK A01 T02780147  RH  045%=      5-min Rain = 0
KEA1 200645Z 15011KT 28/15 A3011 RMK A01 T02780147  RH  045%=      5-min Rain = 0
KEA1 200646Z 15010KT 28/15 A3011 RMK A01 T02780147  RH  045%=      5-min Rain = 0
KEA1 200647Z 15011KT 28/15 A3011 RMK A01 T02780147  RH  045%=      5-min Rain = 0
KEA1 200648Z 15011KT 28/15 A3011 RMK A01 T02770147  RH  045%=      5-min Rain = 0
KEA1 200649Z 15012KT 28/15 A3011 RMK A01 T02770147  RH  045%=      5-min Rain = 0
KEA1 200650Z 15011KT 28/15 A3011 RMK A01 T02770147  RH  045%=      5-min Rain = 0
KEA1 200651Z 15011KT 28/15 A3011 RMK A01 T02770147  RH  045%=      5-min Rain = 0
KEA1 200652Z 15011KT 28/15 A3011 RMK A01 T02770147  RH  045%=      5-min Rain = 0
KEA1 200653Z 16010KT 28/15 A3011 RMK A01 T02760147  RH  045%=      5-min Rain = 0
KEA1 200654Z 16010KT 28/15 A3011 RMK A01 T02760147  RH  045%=      5-min Rain = 0
KEA1 200655Z 16010KT 28/15 A3011 RMK A01 T02750147  RH  045%=      5-min Rain = 0
KEA1 200656Z 16010KT 28/15 A3011 RMK A01 T02760147  RH  045%=      5-min Rain = 0
KEA1 200657Z 16010KT 28/15 A3011 RMK A01 T02750147  RH  045%=      5-min Rain = 0
KEA1 200658Z 16010KT 28/15 A3011 RMK A01 T02750148  RH  046%=      5-min Rain = 0
KEA1 200659Z 16011KT 28/15 A3011 RMK A01 T02750147  RH  046%=      5-min Rain = 0
KEA1 200700Z 16010KT 27/15 A3011 RMK A01 T02740147  RH  046%=      5-min Rain = 0
KEA1 200701Z 16010KT 28/15 A3011 RMK A01 T02750148  RH  046%=      5-min Rain = 0
KEA1 200702Z 17010KT 28/15 A3011 RMK A01 T02750148  RH  046%=      5-min Rain = 0
KEA1 200703Z 16011KT 27/15 A3011 RMK A01 T02740147  RH  046%=      5-min Rain = 0
KEA1 200704Z 17010KT 27/15 A3011 RMK A01 T02740148  RH  046%=      5-min Rain = 0
KEA1 200705Z 16011KT 27/15 A3011 RMK A01 T02740148  RH  046%=      5-min Rain = 0
KEA1 200706Z 16010KT 27/15 A3011 RMK A01 T02740147  RH  046%=      5-min Rain = 0
KEA1 200707Z 16010KT 27/15 A3011 RMK A01 T02740148  RH  046%=      5-min Rain = 0
KEA1 200708Z 17010KT 27/15 A3011 RMK A01 T02740148  RH  046%=      5-min Rain = 0
KEA1 200709Z 17010KT 27/15 A3011 RMK A01 T02740148  RH  046%=      5-min Rain = 0
KEA1 200710Z 16009KT 27/15 A3011 RMK A01 T02730148  RH  046%=      5-min Rain = 0
KEA1 200711Z 17012KT 27/15 A3011 RMK A01 T02730148  RH  046%=      5-min Rain = 0
KEA1 200712Z 17011KT 27/15 A3011 RMK A01 T02730148  RH  046%=      5-min Rain = 0
KEA1 200713Z 16011KT 27/15 A3011 RMK A01 T02730148  RH  046%=      5-min Rain = 0
KEA1 200714Z 16012KT 27/15 A3011 RMK A01 T02730148  RH  046%=      5-min Rain = 0
KEA1 200715Z 16010KT 27/15 A3011 RMK A01 T02730148  RH  046%=      5-min Rain = 0
KEA1 200716Z 16012KT 27/15 A3011 RMK A01 T02730148  RH  046%=      5-min Rain = 0
KEA1 200717Z 16011KT 27/15 A3011 RMK A01 T02730148  RH  047%=      5-min Rain = 0
KEA1 200718Z 16011KT 27/15 A3011 RMK A01 T02720148  RH  047%=      5-min Rain = 0
KEA1 200719Z 16012KT 27/15 A3011 RMK A01 T02720148  RH  047%=      5-min Rain = 0
KEA1 200720Z 16011KT 27/15 A3011 RMK A01 T02720148  RH  047%=      5-min Rain = 0
KEA1 200721Z 16011KT 27/15 A3011 RMK A01 T02720148  RH  047%=      5-min Rain = 0
KEA1 200722Z 16012KT 27/15 A3011 RMK A01 T02730149  RH  047%=      5-min Rain = 0
KEA1 200723Z 16012KT 27/15 A3011 RMK A01 T02720148  RH  047%=      5-min Rain = 0
KEA1 200724Z 16012KT 27/15 A3011 RMK A01 T02720148  RH  047%=      5-min Rain = 0
KEA1 200725Z 16011KT 27/15 A3011 RMK A01 T02730149  RH  047%=      5-min Rain = 0
KEA1 200726Z 16012KT 27/15 A3011 RMK A01 T02730148  RH  047%=      5-min Rain = 0
KEA1 200727Z 16011KT 27/15 A3011 RMK A01 T02730149  RH  047%=      5-min Rain = 0
KEA1 200728Z 16009KT 27/15 A3011 RMK A01 T02720149  RH  047%=      5-min Rain = 0
KEA1 200729Z 16012KT 27/15 A3011 RMK A01 T02720149  RH  047%=      5-min Rain = 0
KEA1 200730Z 16011KT 27/15 A3011 RMK A01 T02720149  RH  047%=      5-min Rain = 0
KEA1 200731Z 16011KT 27/15 A3011 RMK A01 T02720149  RH  047%=      5-min Rain = 0
KEA1 200732Z 16011KT 27/15 A3011 RMK A01 T02720149  RH  047%=      5-min Rain = 0
KEA1 200733Z 16011KT 27/15 A3011 RMK A01 T02720149  RH  047%=      5-min Rain = 0
KEA1 200734Z 16011KT 27/15 A3011 RMK A01 T02720149  RH  047%=      5-min Rain = 0
KEA1 200735Z 16011KT 27/15 A3011 RMK A01 T02720149  RH  047%=      5-min Rain = 0
KEA1 200736Z 16012KT 27/15 A3011 RMK A01 T02710149  RH  047%=      5-min Rain = 0
KEA1 200737Z 16011KT 27/15 A3011 RMK A01 T02710150  RH  047%=      5-min Rain = 0
KEA1 200738Z 16012KT 27/15 A3011 RMK A01 T02710150  RH  047%=      5-min Rain = 0
KEA1 200739Z 16012KT 27/15 A3011 RMK A01 T02710150  RH  047%=      5-min Rain = 0
KEA1 200740Z 16011KT 27/15 A3011 RMK A01 T02710150  RH  047%=      5-min Rain = 0
KEA1 200741Z 16011KT 27/15 A3011 RMK A01 T02710150  RH  047%=      5-min Rain = 0
KEA1 200742Z 16011KT 27/15 A3011 RMK A01 T02710150  RH  047%=      5-min Rain = 0
KEA1 200743Z 16010KT 27/15 A3011 RMK A01 T02710150  RH  048%=      5-min Rain = 0
KEA1 200744Z 15012KT 27/15 A3011 RMK A01 T02700150  RH  048%=      5-min Rain = 0
KEA1 200745Z 16012KT 27/15 A3011 RMK A01 T02700150  RH  048%=      5-min Rain = 0
KEA1 200746Z 16011KT 27/15 A3011 RMK A01 T02700150  RH  048%=      5-min Rain = 0
KEA1 200747Z 15012KT 27/15 A3011 RMK A01 T02700150  RH  048%=      5-min Rain = 0
KEA1 200748Z 15011KT 27/15 A3011 RMK A01 T02700150  RH  048%=      5-min Rain = 0
KEA1 200749Z 16012KT 27/15 A3011 RMK A01 T02700150  RH  048%=      5-min Rain = 0
KEA1 200750Z 16012KT 27/15 A3011 RMK A01 T02700150  RH  048%=      5-min Rain = 0
KEA1 200751Z 16012KT 27/15 A3011 RMK A01 T02700150  RH  048%=      5-min Rain = 0
KEA1 200752Z 16012KT 27/15 A3011 RMK A01 T02710150  RH  048%=      5-min Rain = 0
KEA1 200753Z 16011KT 27/15 A3011 RMK A01 T02700150  RH  048%=      5-min Rain = 0
KEA1 200754Z 16013KT 27/15 A3011 RMK A01 T02700150  RH  048%=      5-min Rain = 0
KEA1 200755Z 16011KT 27/15 A3011 RMK A01 T02700150  RH  048%=      5-min Rain = 0
KEA1 200756Z 16014KT 27/15 A3011 RMK A01 T02710151  RH  048%=      5-min Rain = 0
KEA1 200757Z 16011KT 27/15 A3011 RMK A01 T02710151  RH  048%=      5-min Rain = 0
KEA1 200758Z 16013KT 27/15 A3011 RMK A01 T02710151  RH  048%=      5-min Rain = 0
KEA1 200759Z 16012KT 27/15 A3011 RMK A01 T02710151  RH  048%=      5-min Rain = 0
KEA1 200800Z 16012KT 27/15 A3011 RMK A01 T02710150  RH  048%=      5-min Rain = 0
KEA1 200801Z 16012KT 27/15 A3011 RMK A01 T02710151  RH  048%=      5-min Rain = 0
KEA1 200802Z 17012KT 27/15 A3011 RMK A01 T02710150  RH  048%=      5-min Rain = 0
KEA1 200803Z 17013KT 27/15 A3011 RMK A01 T02710151  RH  048%=      5-min Rain = 0
KEA1 200804Z 17011KT 27/15 A3011 RMK A01 T02710151  RH  048%=      5-min Rain = 0
KEA1 200805Z 16012KT 27/15 A3011 RMK A01 T02710151  RH  048%=      5-min Rain = 0
KEA1 200806Z 16011KT 27/15 A3011 RMK A01 T02710151  RH  048%=      5-min Rain = 0
KEA1 200807Z 17011KT 27/15 A3011 RMK A01 T02710151  RH  048%=      5-min Rain = 0
KEA1 200808Z 16010KT 27/15 A3011 RMK A01 T02710151  RH  048%=      5-min Rain = 0
KEA1 200809Z 16011KT 27/15 A3011 RMK A01 T02710151  RH  048%=      5-min Rain = 0
KEA1 200810Z 16011KT 27/15 A3011 RMK A01 T02710151  RH  048%=      5-min Rain = 0
KEA1 200811Z 16011KT 27/15 A3011 RMK A01 T02710151  RH  048%=      5-min Rain = 0
KEA1 200812Z 16010KT 27/15 A3011 RMK A01 T02710151  RH  048%=      5-min Rain = 0
KEA1 200813Z 16010KT 27/15 A3011 RMK A01 T02710151  RH  048%=      5-min Rain = 0
KEA1 200814Z 16011KT 27/15 A3011 RMK A01 T02710152  RH  048%=      5-min Rain = 0
KEA1 200815Z 16010KT 27/15 A3011 RMK A01 T02710151  RH  048%=      5-min Rain = 0
KEA1 200816Z 16011KT 27/15 A3011 RMK A01 T02700151  RH  048%=      5-min Rain = 0
KEA1 200817Z 16011KT 27/15 A3011 RMK A01 T02700151  RH  048%=      5-min Rain = 0
KEA1 200818Z 16011KT 27/15 A3011 RMK A01 T02700151  RH  048%=      5-min Rain = 0
KEA1 200819Z 16010KT 27/15 A3011 RMK A01 T02710151  RH  048%=      5-min Rain = 0
KEA1 200820Z 16010KT 27/15 A3011 RMK A01 T02700151  RH  048%=      5-min Rain = 0
KEA1 200821Z 16009KT 27/15 A3011 RMK A01 T02700151  RH  048%=      5-min Rain = 0
KEA1 200822Z 16009KT 27/15 A3011 RMK A01 T02700151  RH  048%=      5-min Rain = 0
KEA1 200823Z 16009KT 27/15 A3011 RMK A01 T02700152  RH  048%=      5-min Rain = 0
KEA1 200824Z 16009KT 27/15 A3011 RMK A01 T02700152  RH  048%=      5-min Rain = 0
KEA1 200825Z 16010KT 27/15 A3011 RMK A01 T02690151  RH  048%=      5-min Rain = 0
KEA1 200826Z 16010KT 27/15 A3011 RMK A01 T02690151  RH  048%=      5-min Rain = 0
KEA1 200827Z 17010KT 27/15 A3011 RMK A01 T02690151  RH  048%=      5-min Rain = 0
KEA1 200828Z 16009KT 27/15 A3011 RMK A01 T02690151  RH  048%=      5-min Rain = 0
KEA1 200829Z 17008KT 27/15 A3011 RMK A01 T02690151  RH  049%=      5-min Rain = 0
KEA1 200830Z 17010KT 27/15 A3011 RMK A01 T02690151  RH  049%=      5-min Rain = 0
KEA1 200831Z 16010KT 27/15 A3011 RMK A01 T02680151  RH  049%=      5-min Rain = 0
KEA1 200832Z 16009KT 27/15 A3011 RMK A01 T02690151  RH  049%=      5-min Rain = 0
KEA1 200833Z 16009KT 27/15 A3011 RMK A01 T02690151  RH  049%=      5-min Rain = 0
KEA1 200834Z 16008KT 27/15 A3012 RMK A01 T02680151  RH  049%=      5-min Rain = 0
KEA1 200835Z 16008KT 27/15 A3012 RMK A01 T02680152  RH  049%=      5-min Rain = 0
KEA1 200836Z 16009KT 27/15 A3012 RMK A01 T02680152  RH  049%=      5-min Rain = 0
KEA1 200837Z 16008KT 27/15 A3012 RMK A01 T02670151  RH  049%=      5-min Rain = 0
KEA1 200838Z 16008KT 27/15 A3012 RMK A01 T02670152  RH  049%=      5-min Rain = 0
KEA1 200839Z 16008KT 27/15 A3012 RMK A01 T02670151  RH  049%=      5-min Rain = 0
KEA1 200840Z 16009KT 27/15 A3012 RMK A01 T02660151  RH  049%=      5-min Rain = 0
KEA1 200841Z 16009KT 27/15 A3012 RMK A01 T02660152  RH  049%=      5-min Rain = 0
KEA1 200842Z 15009KT 27/15 A3012 RMK A01 T02660151  RH  049%=      5-min Rain = 0
KEA1 200843Z 16008KT 27/15 A3012 RMK A01 T02670152  RH  049%=      5-min Rain = 0
KEA1 200844Z 15008KT 27/15 A3012 RMK A01 T02660152  RH  049%=      5-min Rain = 0
KEA1 200845Z 15009KT 27/15 A3012 RMK A01 T02660151  RH  050%=      5-min Rain = 0
KEA1 200846Z 15010KT 27/15 A3012 RMK A01 T02650152  RH  050%=      5-min Rain = 0
KEA1 200847Z 15010KT 27/15 A3012 RMK A01 T02660152  RH  050%=      5-min Rain = 0
KEA1 200848Z 15009KT 27/15 A3012 RMK A01 T02650152  RH  050%=      5-min Rain = 0
KEA1 200849Z 15009KT 27/15 A3012 RMK A01 T02650152  RH  050%=      5-min Rain = 0
KEA1 200850Z 15009KT 27/15 A3012 RMK A01 T02650152  RH  050%=      5-min Rain = 0
KEA1 200851Z 15009KT 27/15 A3012 RMK A01 T02650152  RH  050%=      5-min Rain = 0
KEA1 200852Z 15008KT 26/15 A3012 RMK A01 T02640152  RH  050%=      5-min Rain = 0
KEA1 200853Z 16009KT 26/15 A3012 RMK A01 T02640152  RH  050%=      5-min Rain = 0
KEA1 200854Z 15008KT 26/15 A3012 RMK A01 T02640152  RH  050%=      5-min Rain = 0
KEA1 200855Z 15009KT 26/15 A3012 RMK A01 T02640152  RH  050%=      5-min Rain = 0
KEA1 200856Z 16008KT 26/15 A3012 RMK A01 T02640152  RH  050%=      5-min Rain = 0
KEA1 200857Z 16007KT 26/15 A3012 RMK A01 T02640152  RH  050%=      5-min Rain = 0
KEA1 200858Z 16006KT 26/15 A3012 RMK A01 T02640152  RH  050%=      5-min Rain = 0
KEA1 200859Z 17006KT 26/15 A3012 RMK A01 T02630152  RH  050%=      5-min Rain = 0
KEA1 200900Z 17006KT 26/15 A3012 RMK A01 T02630152  RH  050%=      5-min Rain = 0
KEA1 200901Z 16007KT 26/15 A3012 RMK A01 T02620152  RH  050%=      5-min Rain = 0
KEA1 200902Z 17007KT 26/15 A3012 RMK A01 T02620152  RH  051%=      5-min Rain = 0
KEA1 200903Z 17007KT 26/15 A3012 RMK A01 T02620152  RH  051%=      5-min Rain = 0
KEA1 200904Z 17007KT 26/15 A3013 RMK A01 T02620152  RH  051%=      5-min Rain = 0
KEA1 200905Z 17006KT 26/15 A3013 RMK A01 T02620152  RH  051%=      5-min Rain = 0
KEA1 200906Z 17006KT 26/15 A3013 RMK A01 T02620152  RH  051%=      5-min Rain = 0
KEA1 200907Z 17005KT 26/15 A3013 RMK A01 T02620152  RH  051%=      5-min Rain = 0
KEA1 200908Z 17006KT 26/15 A3013 RMK A01 T02610152  RH  051%=      5-min Rain = 0
KEA1 200909Z 18006KT 26/15 A3013 RMK A01 T02610152  RH  051%=      5-min Rain = 0
KEA1 200910Z 18006KT 26/15 A3013 RMK A01 T02610152  RH  051%=      5-min Rain = 0
KEA1 200911Z 18005KT 26/15 A3013 RMK A01 T02600152  RH  051%=      5-min Rain = 0
KEA1 200912Z 18006KT 26/15 A3013 RMK A01 T02600152  RH  051%=      5-min Rain = 0
KEA1 200913Z 18006KT 26/15 A3013 RMK A01 T02600152  RH  051%=      5-min Rain = 0
KEA1 200914Z 18006KT 26/15 A3013 RMK A01 T02590152  RH  051%=      5-min Rain = 0
KEA1 200915Z 18006KT 26/15 A3013 RMK A01 T02590152  RH  051%=      5-min Rain = 0
KEA1 200916Z 19006KT 26/15 A3013 RMK A01 T02590152  RH  051%=      5-min Rain = 0
KEA1 200917Z 18007KT 26/15 A3013 RMK A01 T02590152  RH  051%=      5-min Rain = 0
KEA1 200918Z 19006KT 26/15 A3013 RMK A01 T02590152  RH  052%=      5-min Rain = 0
KEA1 200919Z 19006KT 26/15 A3013 RMK A01 T02590152  RH  052%=      5-min Rain = 0
KEA1 200920Z 19006KT 26/15 A3013 RMK A01 T02580152  RH  052%=      5-min Rain = 0
KEA1 200921Z 19005KT 26/15 A3013 RMK A01 T02590152  RH  052%=      5-min Rain = 0
KEA1 200922Z 19005KT 26/15 A3013 RMK A01 T02590152  RH  052%=      5-min Rain = 0
KEA1 200923Z 18006KT 26/15 A3013 RMK A01 T02580152  RH  052%=      5-min Rain = 0
KEA1 200924Z 18006KT 26/15 A3013 RMK A01 T02580152  RH  052%=      5-min Rain = 0
KEA1 200925Z 19006KT 26/15 A3013 RMK A01 T02580152  RH  052%=      5-min Rain = 0
KEA1 200926Z 19005KT 26/15 A3013 RMK A01 T02570152  RH  052%=      5-min Rain = 0
KEA1 200927Z 19006KT 26/15 A3013 RMK A01 T02570152  RH  052%=      5-min Rain = 0
KEA1 200928Z 19005KT 26/15 A3013 RMK A01 T02570152  RH  052%=      5-min Rain = 0
KEA1 200929Z 19005KT 26/15 A3013 RMK A01 T02570152  RH  052%=      5-min Rain = 0
KEA1 200930Z 18005KT 26/15 A3013 RMK A01 T02570152  RH  052%=      5-min Rain = 0
KEA1 200931Z 19005KT 26/15 A3013 RMK A01 T02570152  RH  052%=      5-min Rain = 0
KEA1 200932Z 18005KT 26/15 A3013 RMK A01 T02560152  RH  053%=      5-min Rain = 0
KEA1 200933Z 18005KT 26/15 A3013 RMK A01 T02550152  RH  053%=      5-min Rain = 0
KEA1 200934Z 19004KT 26/15 A3013 RMK A01 T02550152  RH  053%=      5-min Rain = 0
KEA1 200935Z 19004KT 26/15 A3013 RMK A01 T02550152  RH  053%=      5-min Rain = 0
KEA1 200936Z 20003KT 25/15 A3013 RMK A01 T02540152  RH  053%=      5-min Rain = 0
KEA1 200937Z 21003KT 25/15 A3013 RMK A01 T02540152  RH  053%=      5-min Rain = 0
KEA1 200938Z 22003KT 25/15 A3013 RMK A01 T02530152  RH  053%=      5-min Rain = 0
KEA1 200939Z 22003KT 25/15 A3013 RMK A01 T02530152  RH  053%=      5-min Rain = 0
KEA1 200940Z 22003KT 25/15 A3013 RMK A01 T02530152  RH  053%=      5-min Rain = 0
KEA1 200941Z 21004KT 25/15 A3013 RMK A01 T02530152  RH  053%=      5-min Rain = 0
KEA1 200942Z 21003KT 25/15 A3013 RMK A01 T02540152  RH  053%=      5-min Rain = 0
KEA1 200943Z 20004KT 26/15 A3013 RMK A01 T02550152  RH  053%=      5-min Rain = 0
KEA1 200944Z 19004KT 26/15 A3013 RMK A01 T02560152  RH  053%=      5-min Rain = 0
KEA1 200945Z 19004KT 26/15 A3013 RMK A01 T02560152  RH  053%=      5-min Rain = 0
KEA1 200946Z 18003KT 26/15 A3013 RMK A01 T02570152  RH  052%=      5-min Rain = 0
KEA1 200947Z 18003KT 26/15 A3013 RMK A01 T02570152  RH  052%=      5-min Rain = 0
KEA1 200948Z 17003KT 26/15 A3013 RMK A01 T02570152  RH  052%=      5-min Rain = 0
KEA1 200949Z 17003KT 26/15 A3013 RMK A01 T02570152  RH  052%=      5-min Rain = 0
KEA1 200950Z 17003KT 26/15 A3013 RMK A01 T02570152  RH  052%=      5-min Rain = 0
KEA1 200951Z 16003KT 26/15 A3013 RMK A01 T02560152  RH  052%=      5-min Rain = 0
KEA1 200952Z 16003KT 26/15 A3013 RMK A01 T02560152  RH  053%=      5-min Rain = 0
KEA1 200953Z 15003KT 26/15 A3013 RMK A01 T02550152  RH  053%=      5-min Rain = 0
KEA1 200954Z 15003KT 26/15 A3013 RMK A01 T02550152  RH  053%=      5-min Rain = 0
KEA1 200955Z 14003KT 25/15 A3013 RMK A01 T02540152  RH  053%=      5-min Rain = 0
KEA1 200956Z 14003KT 25/15 A3013 RMK A01 T02530152  RH  053%=      5-min Rain = 0
KEA1 200957Z 14003KT 25/15 A3013 RMK A01 T02530152  RH  054%=      5-min Rain = 0
KEA1 200958Z 13003KT 25/15 A3013 RMK A01 T02520152  RH  054%=      5-min Rain = 0
KEA1 200959Z 13003KT 25/15 A3013 RMK A01 T02510151  RH  054%=      5-min Rain = 0
KEA1 201000Z 13003KT 25/15 A3013 RMK A01 T02500152  RH  054%=      5-min Rain = 0
KEA1 201001Z 14004KT 25/15 A3013 RMK A01 T02490152  RH  055%=      5-min Rain = 0
KEA1 201002Z 14003KT 25/15 A3013 RMK A01 T02480151  RH  055%=      5-min Rain = 0
KEA1 201003Z 13003KT 25/15 A3013 RMK A01 T02490152  RH  055%=      5-min Rain = 0
KEA1 201004Z 13004KT 25/15 A3013 RMK A01 T02480151  RH  055%=      5-min Rain = 0
KEA1 201005Z 13004KT 25/15 A3013 RMK A01 T02480152  RH  055%=      5-min Rain = 0
KEA1 201006Z 14004KT 25/15 A3013 RMK A01 T02470151  RH  055%=      5-min Rain = 0
KEA1 201007Z 14004KT 25/15 A3013 RMK A01 T02470151  RH  055%=      5-min Rain = 0
KEA1 201008Z 14004KT 25/15 A3013 RMK A01 T02470151  RH  055%=      5-min Rain = 0
KEA1 201009Z 14004KT 25/15 A3013 RMK A01 T02460151  RH  055%=      5-min Rain = 0
KEA1 201010Z 14004KT 25/15 A3013 RMK A01 T02460151  RH  056%=      5-min Rain = 0
KEA1 201011Z 15005KT 25/15 A3013 RMK A01 T02450151  RH  056%=      5-min Rain = 0
KEA1 201012Z 15005KT 24/15 A3013 RMK A01 T02440151  RH  056%=      5-min Rain = 0
KEA1 201013Z 15005KT 24/15 A3013 RMK A01 T02430151  RH  056%=      5-min Rain = 0
KEA1 201014Z 15005KT 24/15 A3014 RMK A01 T02430151  RH  056%=      5-min Rain = 0
KEA1 201015Z 15005KT 24/15 A3014 RMK A01 T02410150  RH  057%=      5-min Rain = 0
KEA1 201016Z 15006KT 24/15 A3014 RMK A01 T02400150  RH  057%=      5-min Rain = 0
KEA1 201017Z 15006KT 24/15 A3014 RMK A01 T02380150  RH  057%=      5-min Rain = 0
KEA1 201018Z 15006KT 24/15 A3014 RMK A01 T02370150  RH  058%=      5-min Rain = 0
KEA1 201019Z 15007KT 24/15 A3014 RMK A01 T02360149  RH  058%=      5-min Rain = 0
KEA1 201020Z 15007KT 24/15 A3014 RMK A01 T02350150  RH  059%=      5-min Rain = 0
KEA1 201021Z 15007KT 23/15 A3014 RMK A01 T02340149  RH  059%=      5-min Rain = 0
KEA1 201022Z 15007KT 23/15 A3014 RMK A01 T02340150  RH  059%=      5-min Rain = 0
KEA1 201023Z 15008KT 23/15 A3014 RMK A01 T02340150  RH  059%=      5-min Rain = 0
KEA1 201024Z 15008KT 23/15 A3014 RMK A01 T02330150  RH  059%=      5-min Rain = 0
KEA1 201025Z 15008KT 23/15 A3014 RMK A01 T02330150  RH  059%=      5-min Rain = 0
KEA1 201026Z 16008KT 23/15 A3014 RMK A01 T02330150  RH  059%=      5-min Rain = 0
KEA1 201027Z 16008KT 23/15 A3014 RMK A01 T02330150  RH  059%=      5-min Rain = 0
KEA1 201028Z 16008KT 23/15 A3014 RMK A01 T02340150  RH  059%=      5-min Rain = 0
KEA1 201029Z 16008KT 23/15 A3014 RMK A01 T02330150  RH  059%=      5-min Rain = 0
KEA1 201030Z 16008KT 23/15 A3014 RMK A01 T02330149  RH  059%=      5-min Rain = 0
KEA1 201031Z 16008KT 23/15 A3014 RMK A01 T02330149  RH  059%=      5-min Rain = 0
KEA1 201032Z 16008KT 23/15 A3014 RMK A01 T02330150  RH  059%=      5-min Rain = 0
KEA1 201033Z 16008KT 23/15 A3014 RMK A01 T02330149  RH  059%=      5-min Rain = 0
KEA1 201034Z 16008KT 23/15 A3014 RMK A01 T02320149  RH  060%=      5-min Rain = 0
KEA1 201035Z 16008KT 23/15 A3014 RMK A01 T02320149  RH  060%=      5-min Rain = 0
KEA1 201036Z 16008KT 23/15 A3014 RMK A01 T02310149  RH  060%=      5-min Rain = 0
KEA1 201037Z 16007KT 23/15 A3014 RMK A01 T02300149  RH  060%=      5-min Rain = 0
KEA1 201038Z 16007KT 23/15 A3013 RMK A01 T02300149  RH  060%=      5-min Rain = 0
KEA1 201039Z 16007KT 23/15 A3013 RMK A01 T02300149  RH  060%=      5-min Rain = 0
KEA1 201040Z 16007KT 23/15 A3013 RMK A01 T02300149  RH  060%=      5-min Rain = 0
KEA1 201041Z 16007KT 23/15 A3013 RMK A01 T02300149  RH  060%=      5-min Rain = 0
KEA1 201042Z 16007KT 23/15 A3013 RMK A01 T02300149  RH  060%=      5-min Rain = 0
KEA1 201043Z 17007KT 23/15 A3013 RMK A01 T02300149  RH  060%=      5-min Rain = 0
KEA1 201044Z 17007KT 23/15 A3013 RMK A01 T02290149  RH  061%=      5-min Rain = 0
KEA1 201045Z 17007KT 23/15 A3013 RMK A01 T02290149  RH  061%=      5-min Rain = 0
KEA1 201046Z 17007KT 23/15 A3013 RMK A01 T02290149  RH  061%=      5-min Rain = 0
KEA1 201047Z 17006KT 23/15 A3013 RMK A01 T02290149  RH  061%=      5-min Rain = 0
KEA1 201048Z 17006KT 23/15 A3013 RMK A01 T02290149  RH  061%=      5-min Rain = 0
KEA1 201049Z 17006KT 23/15 A3013 RMK A01 T02290149  RH  061%=      5-min Rain = 0
KEA1 201050Z 18005KT 23/15 A3013 RMK A01 T02290149  RH  061%=      5-min Rain = 0
KEA1 201051Z 18005KT 23/15 A3013 RMK A01 T02280148  RH  061%=      5-min Rain = 0
KEA1 201052Z 18005KT 23/15 A3013 RMK A01 T02270148  RH  061%=      5-min Rain = 0
KEA1 201053Z 18005KT 23/15 A3013 RMK A01 T02270148  RH  061%=      5-min Rain = 0
KEA1 201054Z 19005KT 23/15 A3013 RMK A01 T02260148  RH  061%=      5-min Rain = 0
KEA1 201055Z 19005KT 23/15 A3013 RMK A01 T02260148  RH  061%=      5-min Rain = 0
KEA1 201056Z 19005KT 23/15 A3013 RMK A01 T02270148  RH  061%=      5-min Rain = 0
KEA1 201057Z 19005KT 23/15 A3013 RMK A01 T02270148  RH  061%=      5-min Rain = 0
KEA1 201058Z 19006KT 23/15 A3013 RMK A01 T02270148  RH  061%=      5-min Rain = 0
KEA1 201059Z 19006KT 23/15 A3013 RMK A01 T02280148  RH  060%=      5-min Rain = 0
KEA1 201100Z 18006KT 23/15 A3013 RMK A01 T02290148  RH  060%=      5-min Rain = 0
KEA1 201101Z 18006KT 23/15 A3013 RMK A01 T02290147  RH  060%=      5-min Rain = 0
KEA1 201102Z 18006KT 23/15 A3013 RMK A01 T02290147  RH  060%=      5-min Rain = 0
KEA1 201103Z 18006KT 23/15 A3014 RMK A01 T02290147  RH  060%=      5-min Rain = 0
KEA1 201104Z 18006KT 23/15 A3014 RMK A01 T02290147  RH  060%=      5-min Rain = 0
KEA1 201105Z 19006KT 23/15 A3014 RMK A01 T02290147  RH  060%=      5-min Rain = 0
KEA1 201106Z 19006KT 23/15 A3014 RMK A01 T02290146  RH  060%=      5-min Rain = 0
KEA1 201107Z 19006KT 23/15 A3014 RMK A01 T02280146  RH  060%=      5-min Rain = 0
KEA1 201108Z 19006KT 23/15 A3014 RMK A01 T02280146  RH  060%=      5-min Rain = 0
KEA1 201109Z 19006KT 23/15 A3014 RMK A01 T02270146  RH  060%=      5-min Rain = 0
KEA1 201110Z 19006KT 23/15 A3014 RMK A01 T02270145  RH  060%=      5-min Rain = 0
KEA1 201111Z 19006KT 23/15 A3014 RMK A01 T02260145  RH  060%=      5-min Rain = 0
KEA1 201112Z 19006KT 23/15 A3014 RMK A01 T02260145  RH  060%=      5-min Rain = 0
KEA1 201113Z 19006KT 23/15 A3014 RMK A01 T02260145  RH  060%=      5-min Rain = 0
KEA1 201114Z 19006KT 23/15 A3014 RMK A01 T02260145  RH  060%=      5-min Rain = 0
KEA1 201115Z 19006KT 23/14 A3014 RMK A01 T02260144  RH  060%=      5-min Rain = 0
KEA1 201116Z 19006KT 23/14 A3014 RMK A01 T02260144  RH  060%=      5-min Rain = 0
KEA1 201117Z 19006KT 23/14 A3014 RMK A01 T02260144  RH  060%=      5-min Rain = 0
KEA1 201118Z 19006KT 23/14 A3014 RMK A01 T02270144  RH  060%=      5-min Rain = 0
KEA1 201119Z 19006KT 23/14 A3014 RMK A01 T02260144  RH  060%=      5-min Rain = 0
KEA1 201120Z 19006KT 23/14 A3014 RMK A01 T02260144  RH  060%=      5-min Rain = 0
KEA1 201121Z 19006KT 23/14 A3014 RMK A01 T02260144  RH  060%=      5-min Rain = 0
KEA1 201122Z 19006KT 23/14 A3014 RMK A01 T02260143  RH  060%=      5-min Rain = 0
KEA1 201123Z 19006KT 23/14 A3014 RMK A01 T02250143  RH  060%=      5-min Rain = 0
KEA1 201124Z 19006KT 23/14 A3014 RMK A01 T02260143  RH  059%=      5-min Rain = 0
KEA1 201125Z 19005KT 23/14 A3014 RMK A01 T02260143  RH  059%=      5-min Rain = 0
KEA1 201126Z 19006KT 23/14 A3014 RMK A01 T02260143  RH  059%=      5-min Rain = 0
KEA1 201127Z 19006KT 23/14 A3014 RMK A01 T02270143  RH  059%=      5-min Rain = 0
KEA1 201128Z 19006KT 23/14 A3014 RMK A01 T02270143  RH  059%=      5-min Rain = 0
KEA1 201129Z 19006KT 23/14 A3014 RMK A01 T02270143  RH  059%=      5-min Rain = 0
KEA1 201130Z 19006KT 23/14 A3014 RMK A01 T02280143  RH  059%=      5-min Rain = 0
KEA1 201131Z 19006KT 23/14 A3014 RMK A01 T02270143  RH  059%=      5-min Rain = 0
KEA1 201132Z 19006KT 23/14 A3014 RMK A01 T02270143  RH  059%=      5-min Rain = 0
KEA1 201133Z 19006KT 23/14 A3014 RMK A01 T02270143  RH  059%=      5-min Rain = 0
KEA1 201134Z 19006KT 23/14 A3014 RMK A01 T02270143  RH  059%=      5-min Rain = 0
KEA1 201135Z 20007KT 23/14 A3014 RMK A01 T02270143  RH  059%=      5-min Rain = 0
KEA1 201136Z 20006KT 23/14 A3014 RMK A01 T02270143  RH  059%=      5-min Rain = 0
KEA1 201137Z 20007KT 23/14 A3014 RMK A01 T02270144  RH  059%=      5-min Rain = 0
KEA1 201138Z 20007KT 23/14 A3014 RMK A01 T02270143  RH  059%=      5-min Rain = 0
KEA1 201139Z 20007KT 23/14 A3013 RMK A01 T02270143  RH  059%=      5-min Rain = 0
KEA1 201140Z 20007KT 23/14 A3013 RMK A01 T02270143  RH  059%=      5-min Rain = 0
KEA1 201141Z 20009KT 23/14 A3013 RMK A01 T02270143  RH  059%=      5-min Rain = 0
KEA1 201142Z 20008KT 23/14 A3013 RMK A01 T02270142  RH  059%=      5-min Rain = 0
KEA1 201143Z 20007KT 23/14 A3013 RMK A01 T02290142  RH  058%=      5-min Rain = 0
KEA1 201144Z 20008KT 23/14 A3013 RMK A01 T02290142  RH  058%=      5-min Rain = 0
KEA1 201145Z 20009KT 23/14 A3013 RMK A01 T02290141  RH  058%=      5-min Rain = 0
KEA1 201146Z 20008KT 23/14 A3013 RMK A01 T02300141  RH  057%=      5-min Rain = 0
KEA1 201147Z 20009KT 23/14 A3013 RMK A01 T02310142  RH  057%=      5-min Rain = 0
KEA1 201148Z 20009KT 23/14 A3013 RMK A01 T02320141  RH  057%=      5-min Rain = 0
KEA1 201149Z 20008KT 23/14 A3013 RMK A01 T02330141  RH  056%=      5-min Rain = 0
KEA1 201150Z 20008KT 23/14 A3013 RMK A01 T02330141  RH  056%=      5-min Rain = 0
KEA1 201151Z 20009KT 23/14 A3013 RMK A01 T02340140  RH  055%=      5-min Rain = 0
KEA1 201152Z 20009KT 24/14 A3014 RMK A01 T02370141  RH  055%=      5-min Rain = 0
KEA1 201153Z 20008KT 24/14 A3014 RMK A01 T02380141  RH  054%=      5-min Rain = 0
KEA1 201154Z 20009KT 24/14 A3014 RMK A01 T02380140  RH  054%=      5-min Rain = 0
KEA1 201155Z 20008KT 24/14 A3014 RMK A01 T02380141  RH  055%=      5-min Rain = 0
KEA1 201156Z 20008KT 24/14 A3014 RMK A01 T02370141  RH  055%=      5-min Rain = 0
KEA1 201157Z 20008KT 24/14 A3014 RMK A01 T02350141  RH  056%=      5-min Rain = 0
KEA1 201158Z 20007KT 23/14 A3014 RMK A01 T02340141  RH  056%=      5-min Rain = 0
KEA1 201159Z 19009KT 23/14 A3014 RMK A01 T02330141  RH  056%=      5-min Rain = 0
KEA1 201200Z 20008KT 23/14 A3014 RMK A01 T02330141  RH  056%=      5-min Rain = 0
KEA1 201201Z 20007KT 23/14 A3014 RMK A01 T02330141  RH  056%=      5-min Rain = 0
KEA1 201202Z 20007KT 23/14 A3014 RMK A01 T02320141  RH  057%=      5-min Rain = 0
KEA1 201203Z 20008KT 23/14 A3014 RMK A01 T02300141  RH  057%=      5-min Rain = 0
KEA1 201204Z 20007KT 23/14 A3014 RMK A01 T02300141  RH  057%=      5-min Rain = 0
KEA1 201205Z 20008KT 23/14 A3014 RMK A01 T02290141  RH  057%=      5-min Rain = 0
KEA1 201206Z 20008KT 23/14 A3014 RMK A01 T02290141  RH  058%=      5-min Rain = 0
KEA1 201207Z 20008KT 23/14 A3014 RMK A01 T02280141  RH  058%=      5-min Rain = 0
KEA1 201208Z 20008KT 23/14 A3014 RMK A01 T02280141  RH  058%=      5-min Rain = 0
KEA1 201209Z 20007KT 23/14 A3014 RMK A01 T02280141  RH  058%=      5-min Rain = 0
KEA1 201210Z 20008KT 23/14 A3014 RMK A01 T02270141  RH  058%=      5-min Rain = 0
KEA1 201211Z 20007KT 23/14 A3014 RMK A01 T02270140  RH  058%=      5-min Rain = 0
KEA1 201212Z 20008KT 23/14 A3014 RMK A01 T02280141  RH  058%=      5-min Rain = 0
KEA1 201213Z 20007KT 23/14 A3014 RMK A01 T02280141  RH  058%=      5-min Rain = 0
KEA1 201214Z 20008KT 23/14 A3014 RMK A01 T02280141  RH  058%=      5-min Rain = 0
KEA1 201215Z 20008KT 23/14 A3014 RMK A01 T02290140  RH  057%=      5-min Rain = 0
KEA1 201216Z 20007KT 23/14 A3014 RMK A01 T02300140  RH  057%=      5-min Rain = 0
KEA1 201217Z 20007KT 23/14 A3014 RMK A01 T02310140  RH  057%=      5-min Rain = 0
KEA1 201218Z 20008KT 23/14 A3014 RMK A01 T02310141  RH  057%=      5-min Rain = 0
KEA1 201219Z 21008KT 23/14 A3014 RMK A01 T02310140  RH  056%=      5-min Rain = 0
KEA1 201220Z 20008KT 23/14 A3014 RMK A01 T02330140  RH  056%=      5-min Rain = 0
KEA1 201221Z 20008KT 24/14 A3014 RMK A01 T02360141  RH  055%=      5-min Rain = 0
KEA1 201222Z 20008KT 24/14 A3014 RMK A01 T02350141  RH  056%=      5-min Rain = 0
KEA1 201223Z 20008KT 23/14 A3014 RMK A01 T02330141  RH  056%=      5-min Rain = 0
KEA1 201224Z 20008KT 23/14 A3014 RMK A01 T02310141  RH  057%=      5-min Rain = 0
KEA1 201225Z 20008KT 23/14 A3014 RMK A01 T02300141  RH  057%=      5-min Rain = 0
KEA1 201226Z 20007KT 23/14 A3014 RMK A01 T02290141  RH  058%=      5-min Rain = 0
KEA1 201227Z 20007KT 23/14 A3014 RMK A01 T02280141  RH  058%=      5-min Rain = 0
KEA1 201228Z 20007KT 23/14 A3014 RMK A01 T02280141  RH  058%=      5-min Rain = 0
KEA1 201229Z 19006KT 23/14 A3014 RMK A01 T02270141  RH  058%=      5-min Rain = 0
KEA1 201230Z 19007KT 23/14 A3014 RMK A01 T02270141  RH  058%=      5-min Rain = 0
KEA1 201231Z 19007KT 23/14 A3014 RMK A01 T02260141  RH  059%=      5-min Rain = 0
KEA1 201232Z 19006KT 23/14 A3015 RMK A01 T02250141  RH  059%=      5-min Rain = 0
KEA1 201233Z 19006KT 23/14 A3015 RMK A01 T02250141  RH  059%=      5-min Rain = 0
KEA1 201234Z 19006KT 22/14 A3015 RMK A01 T02240141  RH  059%=      5-min Rain = 0
KEA1 201235Z 19006KT 22/14 A3015 RMK A01 T02230140  RH  059%=      5-min Rain = 0
KEA1 201236Z 19006KT 22/14 A3015 RMK A01 T02230140  RH  059%=      5-min Rain = 0
KEA1 201237Z 19006KT 22/14 A3015 RMK A01 T02230140  RH  059%=      5-min Rain = 0
KEA1 201238Z 19006KT 22/14 A3015 RMK A01 T02240140  RH  059%=      5-min Rain = 0
KEA1 201239Z 19006KT 22/14 A3015 RMK A01 T02240141  RH  059%=      5-min Rain = 0
KEA1 201240Z 19006KT 22/14 A3015 RMK A01 T02240140  RH  059%=      5-min Rain = 0
KEA1 201241Z 19006KT 23/14 A3015 RMK A01 T02250141  RH  059%=      5-min Rain = 0
KEA1 201242Z 19006KT 23/14 A3015 RMK A01 T02260141  RH  059%=      5-min Rain = 0
KEA1 201243Z 19006KT 23/14 A3015 RMK A01 T02260141  RH  058%=      5-min Rain = 0
KEA1 201244Z 19006KT 23/14 A3015 RMK A01 T02270141  RH  058%=      5-min Rain = 0
KEA1 201245Z 19006KT 23/14 A3015 RMK A01 T02280140  RH  058%=      5-min Rain = 0
KEA1 201246Z 19006KT 23/14 A3015 RMK A01 T02280141  RH  058%=      5-min Rain = 0
KEA1 201247Z 18006KT 23/14 A3015 RMK A01 T02280141  RH  058%=      5-min Rain = 0
KEA1 201248Z 18006KT 23/14 A3015 RMK A01 T02280141  RH  058%=      5-min Rain = 0
KEA1 201249Z 18006KT 23/14 A3015 RMK A01 T02280141  RH  058%=      5-min Rain = 0
KEA1 201250Z 18006KT 23/14 A3015 RMK A01 T02290142  RH  058%=      5-min Rain = 0
KEA1 201251Z 18006KT 23/14 A3015 RMK A01 T02290143  RH  058%=      5-min Rain = 0
KEA1 201252Z 18006KT 23/14 A3015 RMK A01 T02290143  RH  058%=      5-min Rain = 0
KEA1 201253Z 18006KT 23/14 A3015 RMK A01 T02290143  RH  058%=      5-min Rain = 0
KEA1 201254Z 18005KT 23/14 A3015 RMK A01 T02290143  RH  058%=      5-min Rain = 0
KEA1 201255Z 18005KT 23/14 A3015 RMK A01 T02290143  RH  058%=      5-min Rain = 0
KEA1 201256Z 18005KT 23/14 A3015 RMK A01 T02300143  RH  058%=      5-min Rain = 0
KEA1 201257Z 18005KT 23/14 A3015 RMK A01 T02300144  RH  058%=      5-min Rain = 0
KEA1 201258Z 19005KT 23/14 A3015 RMK A01 T02310144  RH  058%=      5-min Rain = 0
KEA1 201259Z 19005KT 23/14 A3015 RMK A01 T02330144  RH  057%=      5-min Rain = 0
KEA1 201300Z 19005KT 23/14 A3015 RMK A01 T02340144  RH  057%=      5-min Rain = 0
KEA1 201301Z 18005KT 24/15 A3015 RMK A01 T02350145  RH  057%=      5-min Rain = 0
KEA1 201302Z 18004KT 24/15 A3015 RMK A01 T02360145  RH  057%=      5-min Rain = 0
KEA1 201303Z 18004KT 24/15 A3015 RMK A01 T02360145  RH  056%=      5-min Rain = 0
KEA1 201304Z 19004KT 24/15 A3015 RMK A01 T02370145  RH  056%=      5-min Rain = 0
KEA1 201305Z 18004KT 24/15 A3015 RMK A01 T02370145  RH  056%=      5-min Rain = 0
KEA1 201306Z 18003KT 24/15 A3015 RMK A01 T02380146  RH  056%=      5-min Rain = 0
KEA1 201307Z 18004KT 24/15 A3016 RMK A01 T02390146  RH  056%=      5-min Rain = 0
KEA1 201308Z 18004KT 24/15 A3016 RMK A01 T02390146  RH  056%=      5-min Rain = 0
KEA1 201309Z 19004KT 24/15 A3016 RMK A01 T02400145  RH  055%=      5-min Rain = 0
KEA1 201310Z 18004KT 24/15 A3016 RMK A01 T02410146  RH  055%=      5-min Rain = 0
KEA1 201311Z 18004KT 24/15 A3016 RMK A01 T02420146  RH  055%=      5-min Rain = 0
KEA1 201312Z 17004KT 24/15 A3016 RMK A01 T02430146  RH  055%=      5-min Rain = 0
KEA1 201313Z 18003KT 24/15 A3016 RMK A01 T02430146  RH  055%=      5-min Rain = 0
KEA1 201314Z 18004KT 24/15 A3016 RMK A01 T02440147  RH  055%=      5-min Rain = 0
KEA1 201315Z 19004KT 24/15 A3016 RMK A01 T02440147  RH  055%=      5-min Rain = 0
KEA1 201316Z 18004KT 25/15 A3016 RMK A01 T02450146  RH  054%=      5-min Rain = 0
KEA1 201317Z 19004KT 25/15 A3016 RMK A01 T02450147  RH  054%=      5-min Rain = 0
KEA1 201318Z 19003KT 25/15 A3016 RMK A01 T02460147  RH  054%=      5-min Rain = 0
KEA1 201319Z 18003KT 25/15 A3016 RMK A01 T02460147  RH  054%=      5-min Rain = 0
KEA1 201320Z 19003KT 25/15 A3016 RMK A01 T02470148  RH  054%=      5-min Rain = 0
KEA1 201321Z 19003KT 25/15 A3016 RMK A01 T02470147  RH  054%=      5-min Rain = 0
KEA1 201322Z 20003KT 25/15 A3016 RMK A01 T02470147  RH  054%=      5-min Rain = 0
KEA1 201323Z 20003KT 25/15 A3016 RMK A01 T02480147  RH  053%=      5-min Rain = 0
KEA1 201324Z 19003KT 25/15 A3016 RMK A01 T02480147  RH  053%=      5-min Rain = 0
KEA1 201325Z 19004KT 25/15 A3016 RMK A01 T02490148  RH  053%=      5-min Rain = 0
KEA1 201326Z 19003KT 25/15 A3016 RMK A01 T02500148  RH  053%=      5-min Rain = 0
KEA1 201327Z 19004KT 25/15 A3016 RMK A01 T02510149  RH  053%=      5-min Rain = 0
KEA1 201328Z 19004KT 25/15 A3016 RMK A01 T02510149  RH  053%=      5-min Rain = 0
KEA1 201329Z 18005KT 25/15 A3016 RMK A01 T02520149  RH  053%=      5-min Rain = 0
KEA1 201330Z 18004KT 25/15 A3016 RMK A01 T02530149  RH  052%=      5-min Rain = 0
KEA1 201331Z 18004KT 25/15 A3016 RMK A01 T02530148  RH  052%=      5-min Rain = 0
KEA1 201332Z 18003KT 25/15 A3016 RMK A01 T02540150  RH  052%=      5-min Rain = 0
KEA1 201333Z 18003KT 26/15 A3016 RMK A01 T02550150  RH  052%=      5-min Rain = 0
KEA1 201334Z 19004KT 26/15 A3016 RMK A01 T02560149  RH  052%=      5-min Rain = 0
KEA1 201335Z 18003KT 26/15 A3016 RMK A01 T02570151  RH  052%=      5-min Rain = 0
KEA1 201336Z 19003KT 26/15 A3016 RMK A01 T02570151  RH  052%=      5-min Rain = 0
KEA1 201337Z 19005KT 26/15 A3016 RMK A01 T02580151  RH  052%=      5-min Rain = 0
KEA1 201338Z 19006KT 26/15 A3016 RMK A01 T02590150  RH  051%=      5-min Rain = 0
KEA1 201339Z 20005KT 26/15 A3016 RMK A01 T02600150  RH  051%=      5-min Rain = 0
KEA1 201340Z 19006KT 26/15 A3016 RMK A01 T02610150  RH  050%=      5-min Rain = 0
KEA1 201341Z 19007KT 26/15 A3016 RMK A01 T02620150  RH  050%=      5-min Rain = 0
KEA1 201342Z 19008KT 26/15 A3016 RMK A01 T02620151  RH  050%=      5-min Rain = 0
KEA1 201343Z 19007KT 26/15 A3016 RMK A01 T02630150  RH  050%=      5-min Rain = 0
KEA1 201344Z 20007KT 26/15 A3016 RMK A01 T02630150  RH  050%=      5-min Rain = 0
KEA1 201345Z 19006KT 26/15 A3016 RMK A01 T02640151  RH  050%=      5-min Rain = 0
KEA1 201346Z 20007KT 26/15 A3016 RMK A01 T02640151  RH  050%=      5-min Rain = 0
KEA1 201347Z 19008KT 27/15 A3016 RMK A01 T02650152  RH  050%=      5-min Rain = 0
KEA1 201348Z 19010KT 27/15 A3016 RMK A01 T02660151  RH  049%=      5-min Rain = 0
KEA1 201349Z 20010KT 27/15 A3016 RMK A01 T02660151  RH  049%=      5-min Rain = 0
KEA1 201350Z 19009KT 27/15 A3016 RMK A01 T02660151  RH  049%=      5-min Rain = 0
KEA1 201351Z 20009KT 27/15 A3016 RMK A01 T02660151  RH  049%=      5-min Rain = 0
KEA1 201352Z 19009KT 27/15 A3016 RMK A01 T02670151  RH  049%=      5-min Rain = 0
KEA1 201353Z 19010KT 27/15 A3016 RMK A01 T02670151  RH  049%=      5-min Rain = 0
KEA1 201354Z 19012KT 27/15 A3016 RMK A01 T02670151  RH  049%=      5-min Rain = 0
KEA1 201355Z 19011KT 27/15 A3016 RMK A01 T02670151  RH  049%=      5-min Rain = 0
KEA1 201356Z 20010KT 27/15 A3016 RMK A01 T02660151  RH  049%=      5-min Rain = 0
KEA1 201357Z 20010KT 27/15 A3016 RMK A01 T02660152  RH  049%=      5-min Rain = 0
KEA1 201358Z 19010KT 27/15 A3016 RMK A01 T02660151  RH  049%=      5-min Rain = 0
KEA1 201359Z 20008KT 27/15 A3016 RMK A01 T02660152  RH  049%=      5-min Rain = 0
KEA1 201400Z 20011KT 27/15 A3016 RMK A01 T02670152  RH  049%=      5-min Rain = 0
KEA1 201401Z 19009KT 27/15 A3016 RMK A01 T02670152  RH  049%=      5-min Rain = 0
KEA1 201402Z 20007KT 27/15 A3016 RMK A01 T02670153  RH  049%=      5-min Rain = 0
KEA1 201403Z 20012KT 27/15 A3016 RMK A01 T02680153  RH  049%=      5-min Rain = 0
KEA1 201404Z 20011KT 27/15 A3016 RMK A01 T02680152  RH  049%=      5-min Rain = 0
KEA1 201405Z 20009KT 27/15 A3016 RMK A01 T02680153  RH  049%=      5-min Rain = 0
KEA1 201406Z 20010KT 27/15 A3017 RMK A01 T02670153  RH  049%=      5-min Rain = 0
KEA1 201407Z 20011KT 27/15 A3016 RMK A01 T02670153  RH  049%=      5-min Rain = 0
KEA1 201408Z 20011KT 27/15 A3016 RMK A01 T02670153  RH  049%=      5-min Rain = 0
KEA1 201409Z 20009KT 27/15 A3016 RMK A01 T02670153  RH  049%=      5-min Rain = 0
KEA1 201410Z 20010KT 27/15 A3016 RMK A01 T02680153  RH  049%=      5-min Rain = 0
KEA1 201411Z 20012KT 27/15 A3016 RMK A01 T02680153  RH  049%=      5-min Rain = 0
KEA1 201412Z 20012KT 27/15 A3017 RMK A01 T02680154  RH  049%=      5-min Rain = 0
KEA1 201413Z 20010KT 27/15 A3017 RMK A01 T02680154  RH  049%=      5-min Rain = 0
KEA1 201414Z 20010KT 27/15 A3017 RMK A01 T02680154  RH  050%=      5-min Rain = 0
KEA1 201415Z 20010KT 27/16 A3017 RMK A01 T02690155  RH  050%=      5-min Rain = 0
KEA1 201416Z 20012KT 27/16 A3017 RMK A01 T02690155  RH  049%=      5-min Rain = 0
KEA1 201417Z 20013KT 27/15 A3017 RMK A01 T02690154  RH  049%=      5-min Rain = 0
KEA1 201418Z 19010KT 27/15 A3017 RMK A01 T02690154  RH  049%=      5-min Rain = 0
KEA1 201419Z 19010KT 27/16 A3017 RMK A01 T02690155  RH  050%=      5-min Rain = 0
KEA1 201420Z 19011KT 27/16 A3017 RMK A01 T02690155  RH  049%=      5-min Rain = 0
KEA1 201421Z 20011KT 27/15 A3017 RMK A01 T02690154  RH  049%=      5-min Rain = 0
KEA1 201422Z 20009KT 27/16 A3017 RMK A01 T02690155  RH  049%=      5-min Rain = 0
KEA1 201423Z 20012KT 27/16 A3017 RMK A01 T02690155  RH  049%=      5-min Rain = 0
KEA1 201424Z 20010KT 27/16 A3017 RMK A01 T02700155  RH  049%=      5-min Rain = 0
KEA1 201425Z 20009KT 27/16 A3017 RMK A01 T02700155  RH  049%=      5-min Rain = 0
KEA1 201426Z 20008KT 27/16 A3017 RMK A01 T02710156  RH  049%=      5-min Rain = 0
KEA1 201427Z 20011KT 27/16 A3017 RMK A01 T02720156  RH  049%=      5-min Rain = 0
KEA1 201428Z 20011KT 27/16 A3017 RMK A01 T02710155  RH  049%=      5-min Rain = 0
KEA1 201429Z 20008KT 27/16 A3017 RMK A01 T02710156  RH  049%=      5-min Rain = 0
KEA1 201430Z 20010KT 27/16 A3017 RMK A01 T02710156  RH  049%=      5-min Rain = 0
KEA1 201431Z 20010KT 27/16 A3017 RMK A01 T02720156  RH  049%=      5-min Rain = 0
KEA1 201432Z 20007KT 27/16 A3017 RMK A01 T02720156  RH  049%=      5-min Rain = 0
KEA1 201433Z 20008KT 27/16 A3017 RMK A01 T02720157  RH  049%=      5-min Rain = 0
KEA1 201434Z 19009KT 27/16 A3017 RMK A01 T02730157  RH  049%=      5-min Rain = 0
KEA1 201435Z 19009KT 27/16 A3017 RMK A01 T02730156  RH  049%=      5-min Rain = 0
KEA1 201436Z 19010KT 27/16 A3017 RMK A01 T02730156  RH  049%=      5-min Rain = 0
KEA1 201437Z 19013KT 27/16 A3017 RMK A01 T02720156  RH  049%=      5-min Rain = 0
KEA1 201438Z 20013KT 27/16 A3017 RMK A01 T02710155  RH  049%=      5-min Rain = 0
KEA1 201439Z 19011KT 27/16 A3017 RMK A01 T02700156  RH  049%=      5-min Rain = 0
KEA1 201440Z 20011KT 27/16 A3017 RMK A01 T02700155  RH  049%=      5-min Rain = 0
KEA1 201441Z 20009KT 27/16 A3017 RMK A01 T02710156  RH  049%=      5-min Rain = 0
KEA1 201442Z 19008KT 27/16 A3017 RMK A01 T02720157  RH  049%=      5-min Rain = 0
KEA1 201443Z 19011KT 27/16 A3017 RMK A01 T02730156  RH  049%=      5-min Rain = 0
KEA1 201444Z 19012KT 27/16 A3017 RMK A01 T02730156  RH  049%=      5-min Rain = 0
KEA1 201445Z 20012KT 27/16 A3017 RMK A01 T02730156  RH  049%=      5-min Rain = 0
KEA1 201446Z 20011KT 27/16 A3017 RMK A01 T02720156  RH  049%=      5-min Rain = 0
KEA1 201447Z 20007KT 27/16 A3018 RMK A01 T02740158  RH  049%=      5-min Rain = 0
KEA1 201448Z 21008KT 28/16 A3018 RMK A01 T02800161  RH  048%=      5-min Rain = 0
KEA1 201449Z 21009KT 29/16 A3018 RMK A01 T02850160  RH  047%=      5-min Rain = 0
KEA1 201450Z 21009KT 29/16 A3018 RMK A01 T02860158  RH  046%=      5-min Rain = 0
KEA1 201451Z 22011KT 29/16 A3018 RMK A01 T02860158  RH  046%=      5-min Rain = 0
KEA1 201452Z 22012KT 29/16 A3018 RMK A01 T02860158  RH  046%=      5-min Rain = 0
KEA1 201453Z 21013KT 29/16 A3018 RMK A01 T02870159  RH  046%=      5-min Rain = 0
KEA1 201454Z 20012KT 29/16 A3018 RMK A01 T02880157  RH  045%=      5-min Rain = 0
KEA1 201455Z 21012KT 29/16 A3018 RMK A01 T02860156  RH  045%=      5-min Rain = 0
KEA1 201456Z 20012KT 28/16 A3018 RMK A01 T02830156  RH  046%=      5-min Rain = 0
KEA1 201457Z 19015KT 29/16 A3018 RMK A01 T02860158  RH  046%=      5-min Rain = 0
KEA1 201458Z 19010G17KT 29/16 A3018 RMK A01 T02870157  RH  045%=      5-min Rain = 0
KEA1 201459Z 19011KT 29/16 A3018 RMK A01 T02860158  RH  046%=      5-min Rain = 0
KEA1 201500Z 18012KT 29/16 A3018 RMK A01 T02880158  RH  045%=      5-min Rain = 0
KEA1 201501Z 20011KT 29/16 A3018 RMK A01 T02910159  RH  045%=      5-min Rain = 0
KEA1 201502Z 19011KT 29/16 A3018 RMK A01 T02940160  RH  044%=      5-min Rain = 0
KEA1 201503Z 20011KT 30/16 A3018 RMK A01 T02950158  RH  044%=      5-min Rain = 0
KEA1 201504Z 20010KT 29/16 A3018 RMK A01 T02930158  RH  044%=      5-min Rain = 0
KEA1 201505Z 20009KT 29/16 A3018 RMK A01 T02920157  RH  044%=      5-min Rain = 0
KEA1 201506Z 21010KT 29/16 A3018 RMK A01 T02910158  RH  044%=      5-min Rain = 0
KEA1 201507Z 21009KT 29/16 A3018 RMK A01 T02920159  RH  045%=      5-min Rain = 0
KEA1 201508Z 19009KT 29/16 A3018 RMK A01 T02940160  RH  044%=      5-min Rain = 0
KEA1 201509Z 20012KT 30/16 A3018 RMK A01 T02950157  RH  043%=      5-min Rain = 0
KEA1 201510Z 21010KT 29/16 A3018 RMK A01 T02920157  RH  044%=      5-min Rain = 0
KEA1 201511Z 20010KT 29/16 A3018 RMK A01 T02910157  RH  044%=      5-min Rain = 0
KEA1 201512Z 21010KT 29/16 A3018 RMK A01 T02920158  RH  044%=      5-min Rain = 0
KEA1 201513Z 20010KT 29/16 A3018 RMK A01 T02940158  RH  044%=      5-min Rain = 0
KEA1 201514Z 20013KT 30/16 A3018 RMK A01 T02960158  RH  043%=      5-min Rain = 0
KEA1 201515Z 21010KT 30/16 A3018 RMK A01 T02960158  RH  043%=      5-min Rain = 0
KEA1 201516Z 21009KT 30/16 A3018 RMK A01 T02960158  RH  043%=      5-min Rain = 0
KEA1 201517Z 20008KT 30/16 A3018 RMK A01 T02960159  RH  043%=      5-min Rain = 0
KEA1 201518Z 21008KT 30/16 A3018 RMK A01 T02970160  RH  044%=      5-min Rain = 0
KEA1 201519Z 20009KT 30/16 A3018 RMK A01 T02980161  RH  044%=      5-min Rain = 0
KEA1 201520Z 20008KT 30/16 A3018 RMK A01 T02960160  RH  044%=      5-min Rain = 0
KEA1 201521Z 21006KT 30/16 A3018 RMK A01 T02980159  RH  043%=      5-min Rain = 0
KEA1 201522Z 20009KT 30/16 A3018 RMK A01 T03000160  RH  043%=      5-min Rain = 0
KEA1 201523Z 21010KT 30/16 A3018 RMK A01 T03040164  RH  043%=      5-min Rain = 0
KEA1 201524Z 22009KT 30/16 A3018 RMK A01 T03040161  RH  042%=      5-min Rain = 0
KEA1 201525Z 19008KT 30/16 A3018 RMK A01 T03040160  RH  042%=      5-min Rain = 0
KEA1 201526Z 19010KT 30/16 A3018 RMK A01 T03040160  RH  042%=      5-min Rain = 0
KEA1 201527Z 20011KT 31/16 A3018 RMK A01 T03050160  RH  041%=      5-min Rain = 0
KEA1 201528Z 19011KT 31/16 A3018 RMK A01 T03050161  RH  042%=      5-min Rain = 0
KEA1 201529Z 19008KT 31/16 A3018 RMK A01 T03060160  RH  041%=      5-min Rain = 0
KEA1 201530Z 20011KT 31/16 A3018 RMK A01 T03060160  RH  041%=      5-min Rain = 0
KEA1 201531Z 20010KT 30/16 A3018 RMK A01 T03040160  RH  042%=      5-min Rain = 0
KEA1 201532Z 20007KT 30/16 A3018 RMK A01 T03010161  RH  043%=      5-min Rain = 0
KEA1 201533Z 21008KT 30/16 A3018 RMK A01 T03010159  RH  042%=      5-min Rain = 0
KEA1 201534Z 19010KT 30/16 A3018 RMK A01 T03000159  RH  043%=      5-min Rain = 0
KEA1 201535Z 20009KT 30/16 A3018 RMK A01 T02990160  RH  043%=      5-min Rain = 0
KEA1 201536Z 21009KT 30/16 A3018 RMK A01 T02980160  RH  043%=      5-min Rain = 0
KEA1 201537Z 18011KT 30/16 A3018 RMK A01 T02970160  RH  044%=      5-min Rain = 0
KEA1 201538Z 18009KT 30/16 A3018 RMK A01 T02970160  RH  043%=      5-min Rain = 0
KEA1 201539Z 18010KT 30/16 A3018 RMK A01 T03010160  RH  043%=      5-min Rain = 0
KEA1 201540Z 18009KT 30/16 A3018 RMK A01 T03030160  RH  042%=      5-min Rain = 0
KEA1 201541Z 20007KT 30/16 A3018 RMK A01 T03010161  RH  043%=      5-min Rain = 0
KEA1 201542Z 21008KT 30/16 A3018 RMK A01 T03020162  RH  043%=      5-min Rain = 0
KEA1 201543Z 21008KT 30/16 A3018 RMK A01 T03030161  RH  042%=      5-min Rain = 0
KEA1 201544Z 19009KT 30/16 A3018 RMK A01 T03020161  RH  043%=      5-min Rain = 0
KEA1 201545Z 18007KT 30/16 A3018 RMK A01 T03020161  RH  043%=      5-min Rain = 0
KEA1 201546Z 17008KT 30/16 A3018 RMK A01 T03000162  RH  043%=      5-min Rain = 0
KEA1 201547Z 17010KT 30/16 A3018 RMK A01 T03030161  RH  042%=      5-min Rain = 0
KEA1 201548Z 19012KT 31/16 A3018 RMK A01 T03070162  RH  042%=      5-min Rain = 0
KEA1 201549Z 21009KT 31/16 A3018 RMK A01 T03060162  RH  042%=      5-min Rain = 0
KEA1 201550Z 22009KT 31/16 A3018 RMK A01 T03050161  RH  042%=      5-min Rain = 0
KEA1 201551Z 23007KT 30/16 A3018 RMK A01 T03030161  RH  042%=      5-min Rain = 0
KEA1 201552Z 20009KT 31/16 A3018 RMK A01 T03060163  RH  042%=      5-min Rain = 0
KEA1 201553Z 19009G14KT 31/16 A3018 RMK A01 T03080162  RH  042%=      5-min Rain = 0
KEA1 201554Z 19011KT 31/16 A3018 RMK A01 T03070161  RH  041%=      5-min Rain = 0
KEA1 201555Z 19009KT 31/16 A3018 RMK A01 T03110162  RH  041%=      5-min Rain = 0
KEA1 201556Z 21008KT 31/16 A3018 RMK A01 T03110162  RH  041%=      5-min Rain = 0
KEA1 201557Z 21007KT 31/16 A3018 RMK A01 T03090162  RH  041%=      5-min Rain = 0
KEA1 201558Z 23011KT 31/16 A3018 RMK A01 T03070164  RH  042%=      5-min Rain = 0
KEA1 201559Z 22010KT 31/17 A3018 RMK A01 T03060165  RH  043%=      5-min Rain = 0
KEA1 201600Z 21010KT 30/17 A3018 RMK A01 T03030167  RH  044%=      5-min Rain = 0
KEA1 201601Z 20010KT 30/16 A3018 RMK A01 T03030163  RH  043%=      5-min Rain = 0
KEA1 201602Z 19010KT 30/16 A3018 RMK A01 T03020162  RH  043%=      5-min Rain = 0
KEA1 201603Z 21010KT 30/16 A3018 RMK A01 T03020162  RH  043%=      5-min Rain = 0
KEA1 201604Z 20011KT 30/16 A3018 RMK A01 T03010161  RH  043%=      5-min Rain = 0
KEA1 201605Z 21010KT 30/16 A3018 RMK A01 T03000163  RH  044%=      5-min Rain = 0
KEA1 201606Z 23010KT 30/17 A3018 RMK A01 T03020168  RH  045%=      5-min Rain = 0
KEA1 201607Z 22009KT 30/17 A3018 RMK A01 T02990165  RH  045%=      5-min Rain = 0
KEA1 201608Z 22009KT 30/16 A3018 RMK A01 T02950164  RH  045%=      5-min Rain = 0
KEA1 201609Z 21011KT 29/17 A3018 RMK A01 T02920165  RH  046%=      5-min Rain = 0
KEA1 201610Z 21011KT 29/16 A3018 RMK A01 T02910163  RH  046%=      5-min Rain = 0
KEA1 201611Z 22010KT 29/17 A3018 RMK A01 T02920165  RH  046%=      5-min Rain = 0
KEA1 201612Z 22007KT 29/17 A3018 RMK A01 T02910167  RH  047%=      5-min Rain = 0
KEA1 201613Z 20012KT 29/17 A3018 RMK A01 T02920165  RH  046%=      5-min Rain = 0
KEA1 201614Z 20010KT 29/16 A3018 RMK A01 T02920161  RH  045%=      5-min Rain = 0
KEA1 201615Z 20012KT 29/16 A3018 RMK A01 T02920162  RH  045%=      5-min Rain = 0
KEA1 201616Z 21013KT 29/16 A3018 RMK A01 T02930163  RH  045%=      5-min Rain = 0
KEA1 201617Z 20012KT 30/17 A3018 RMK A01 T02970165  RH  045%=      5-min Rain = 0
KEA1 201618Z 20011KT 30/17 A3018 RMK A01 T02990165  RH  045%=      5-min Rain = 0
KEA1 201619Z 21009KT 30/17 A3018 RMK A01 T02990166  RH  045%=      5-min Rain = 0
KEA1 201620Z 21011KT 30/16 A3018 RMK A01 T03010164  RH  044%=      5-min Rain = 0
KEA1 201621Z 20010KT 30/16 A3018 RMK A01 T03020163  RH  043%=      5-min Rain = 0
KEA1 201622Z 20010KT 30/16 A3018 RMK A01 T03000163  RH  044%=      5-min Rain = 0
KEA1 201623Z 21010KT 30/16 A3018 RMK A01 T02990164  RH  044%=      5-min Rain = 0
KEA1 201624Z 23010KT 30/17 A3018 RMK A01 T02960166  RH  045%=      5-min Rain = 0
KEA1 201625Z 24011KT 30/17 A3018 RMK A01 T02950165  RH  045%=      5-min Rain = 0
KEA1 201626Z 23013KT 30/16 A3018 RMK A01 T02950164  RH  045%=      5-min Rain = 0
KEA1 201627Z 24013KT 29/17 A3018 RMK A01 T02930165  RH  046%=      5-min Rain = 0
KEA1 201628Z 24014KT 29/17 A3018 RMK A01 T02920165  RH  046%=      5-min Rain = 0
KEA1 201629Z 24013KT 29/17 A3018 RMK A01 T02910168  RH  047%=      5-min Rain = 0
KEA1 201630Z 24013KT 29/17 A3018 RMK A01 T02910166  RH  047%=      5-min Rain = 0
KEA1 201631Z 24011KT 29/16 A3018 RMK A01 T02920164  RH  046%=      5-min Rain = 0
KEA1 201632Z 23010KT 29/17 A3018 RMK A01 T02930165  RH  046%=      5-min Rain = 0
KEA1 201633Z 23010KT 30/17 A3018 RMK A01 T02950165  RH  045%=      5-min Rain = 0
KEA1 201634Z 23008KT 30/17 A3018 RMK A01 T02950166  RH  046%=      5-min Rain = 0
KEA1 201635Z 23013KT 30/17 A3018 RMK A01 T02980168  RH  046%=      5-min Rain = 0
KEA1 201636Z 23012KT 30/17 A3018 RMK A01 T02990167  RH  045%=      5-min Rain = 0
KEA1 201637Z 23013KT 30/17 A3018 RMK A01 T02980165  RH  045%=      5-min Rain = 0
KEA1 201638Z 24012KT 30/17 A3018 RMK A01 T02970168  RH  046%=      5-min Rain = 0
KEA1 201639Z 23010KT 30/17 A3018 RMK A01 T02980165  RH  045%=      5-min Rain = 0
KEA1 201640Z 25010KT 30/17 A3018 RMK A01 T03040168  RH  044%=      5-min Rain = 0
KEA1 201641Z 24010KT 31/17 A3018 RMK A01 T03070168  RH  043%=      5-min Rain = 0
KEA1 201642Z 23010KT 31/17 A3018 RMK A01 T03120168  RH  042%=      5-min Rain = 0
KEA1 201643Z 23011KT 31/17 A3018 RMK A01 T03100166  RH  042%=      5-min Rain = 0
KEA1 201644Z 23011KT 31/17 A3018 RMK A01 T03060166  RH  043%=      5-min Rain = 0
KEA1 201645Z 21007KT 31/17 A3018 RMK A01 T03050167  RH  043%=      5-min Rain = 0
KEA1 201646Z 22006KT 31/17 A3018 RMK A01 T03090168  RH  043%=      5-min Rain = 0
KEA1 201647Z 24008KT 31/17 A3018 RMK A01 T03090168  RH  043%=      5-min Rain = 0
KEA1 201648Z 24010KT 31/16 A3019 RMK A01 T03060162  RH  042%=      5-min Rain = 0
KEA1 201649Z 25011KT 30/17 A3018 RMK A01 T03030165  RH  043%=      5-min Rain = 0
KEA1 201650Z 24010KT 31/17 A3019 RMK A01 T03070165  RH  042%=      5-min Rain = 0
KEA1 201651Z 22012KT 31/17 A3018 RMK A01 T03090166  RH  042%=      5-min Rain = 0
KEA1 201652Z 21009KT 31/16 A3019 RMK A01 T03080164  RH  042%=      5-min Rain = 0
KEA1 201653Z 21008KT 31/17 A3019 RMK A01 T03070165  RH  042%=      5-min Rain = 0
KEA1 201654Z 22006KT 30/16 A3019 RMK A01 T03030163  RH  043%=      5-min Rain = 0
KEA1 201655Z 22006KT 30/17 A3019 RMK A01 T03020165  RH  044%=      5-min Rain = 0
KEA1 201656Z 24007KT 30/16 A3019 RMK A01 T03030164  RH  043%=      5-min Rain = 0
KEA1 201657Z 21006KT 30/16 A3019 RMK A01 T03030164  RH  043%=      5-min Rain = 0
KEA1 201658Z 21011KT 31/17 A3019 RMK A01 T03050167  RH  044%=      5-min Rain = 0
KEA1 201659Z 21012KT 31/16 A3019 RMK A01 T03070162  RH  042%=      5-min Rain = 0
KEA1 201700Z 21010KT 30/16 A3019 RMK A01 T03030162  RH  042%=      5-min Rain = 0
KEA1 201701Z 20009KT 30/16 A3019 RMK A01 T03000162  RH  043%=      5-min Rain = 0
KEA1 201702Z 20010KT 30/16 A3019 RMK A01 T03000162  RH  043%=      5-min Rain = 0
KEA1 201703Z 21010KT 30/16 A3019 RMK A01 T03010163  RH  043%=      5-min Rain = 0
KEA1 201704Z 21008KT 30/16 A3019 RMK A01 T03030164  RH  043%=      5-min Rain = 0
KEA1 201705Z 21007KT 30/17 A3019 RMK A01 T03030165  RH  043%=      5-min Rain = 0
KEA1 201706Z 22008KT 31/17 A3018 RMK A01 T03060166  RH  043%=      5-min Rain = 0
KEA1 201707Z 24011KT 31/17 A3018 RMK A01 T03080165  RH  042%=      5-min Rain = 0
KEA1 201708Z 24008KT 31/16 A3018 RMK A01 T03080164  RH  042%=      5-min Rain = 0
KEA1 201709Z 21010KT 31/16 A3018 RMK A01 T03060163  RH  042%=      5-min Rain = 0
KEA1 201710Z 20008KT 31/16 A3018 RMK A01 T03080164  RH  042%=      5-min Rain = 0
KEA1 201711Z 21007KT 31/17 A3018 RMK A01 T03130167  RH  041%=      5-min Rain = 0
KEA1 201712Z 19011KT 32/16 A3018 RMK A01 T03160163  RH  040%=      5-min Rain = 0
KEA1 201713Z 20010KT 32/16 A3018 RMK A01 T03190159  RH  038%=      5-min Rain = 0
KEA1 201714Z 22009KT 32/16 A3018 RMK A01 T03180161  RH  039%=      5-min Rain = 0
KEA1 201715Z 21009KT 32/16 A3018 RMK A01 T03200163  RH  039%=      5-min Rain = 0
KEA1 201716Z 20010KT 32/16 A3018 RMK A01 T03190164  RH  039%=      5-min Rain = 0
KEA1 201717Z 18009KT 32/16 A3018 RMK A01 T03190161  RH  039%=      5-min Rain = 0
KEA1 201718Z 19007KT 32/16 A3018 RMK A01 T03180163  RH  039%=      5-min Rain = 0
KEA1 201719Z 20007KT 32/16 A3018 RMK A01 T03190163  RH  039%=      5-min Rain = 0
KEA1 201720Z 21008KT 32/16 A3018 RMK A01 T03180160  RH  039%=      5-min Rain = 0
KEA1 201721Z 19007KT 32/16 A3018 RMK A01 T03160158  RH  039%=      5-min Rain = 0
KEA1 201722Z 20007KT 32/16 A3018 RMK A01 T03180160  RH  039%=      5-min Rain = 0
KEA1 201723Z 19008KT 32/16 A3018 RMK A01 T03180161  RH  039%=      5-min Rain = 0
KEA1 201724Z 18011KT 32/16 A3018 RMK A01 T03180159  RH  038%=      5-min Rain = 0
KEA1 201725Z 18012KT 32/16 A3018 RMK A01 T03180155  RH  037%=      5-min Rain = 0
KEA1 201726Z 19008G14KT 32/16 A3018 RMK A01 T03170155  RH  037%=      5-min Rain = 0
KEA1 201727Z 21005KT 32/16 A3018 RMK A01 T03150156  RH  038%=      5-min Rain = 0
KEA1 201728Z 20008KT 31/16 A3018 RMK A01 T03130159  RH  039%=      5-min Rain = 0
KEA1 201729Z 20007KT 31/16 A3018 RMK A01 T03140163  RH  040%=      5-min Rain = 0
KEA1 201730Z 20007KT 32/16 A3018 RMK A01 T03150161  RH  040%=      5-min Rain = 0
KEA1 201731Z 19007KT 31/16 A3018 RMK A01 T03140160  RH  039%=      5-min Rain = 0
KEA1 201732Z 19007KT 31/16 A3018 RMK A01 T03140160  RH  040%=      5-min Rain = 0
KEA1 201733Z 17008KT 31/16 A3018 RMK A01 T03140160  RH  039%=      5-min Rain = 0
KEA1 201734Z 16005KT 32/16 A3018 RMK A01 T03170160  RH  039%=      5-min Rain = 0
KEA1 201735Z 18010KT 32/16 A3018 RMK A01 T03180158  RH  038%=      5-min Rain = 0
KEA1 201736Z 18009KT 32/16 A3018 RMK A01 T03190156  RH  037%=      5-min Rain = 0
KEA1 201737Z 20009KT 32/16 A3018 RMK A01 T03200161  RH  038%=      5-min Rain = 0
KEA1 201738Z 20010KT 32/16 A3018 RMK A01 T03190160  RH  038%=      5-min Rain = 0
KEA1 201739Z 21009KT 32/16 A3018 RMK A01 T03170156  RH  038%=      5-min Rain = 0
KEA1 201740Z 22004KT 32/16 A3018 RMK A01 T03170156  RH  038%=      5-min Rain = 0
KEA1 201741Z 22002KT 32/16 A3018 RMK A01 T03160156  RH  038%=      5-min Rain = 0
KEA1 201742Z 22006KT 32/16 A3018 RMK A01 T03150158  RH  039%=      5-min Rain = 0
KEA1 201743Z 22004KT 31/16 A3018 RMK A01 T03140157  RH  039%=      5-min Rain = 0
KEA1 201744Z 28001KT 31/16 A3018 RMK A01 T03130156  RH  039%=      5-min Rain = 0
KEA1 201745Z 25004KT 31/16 A3018 RMK A01 T03120159  RH  040%=      5-min Rain = 0
KEA1 201746Z 24008KT 31/16 A3018 RMK A01 T03120162  RH  040%=      5-min Rain = 0
KEA1 201747Z 26007KT 31/16 A3018 RMK A01 T03120162  RH  040%=      5-min Rain = 0
KEA1 201748Z 24010KT 31/16 A3018 RMK A01 T03120162  RH  041%=      5-min Rain = 0
KEA1 201749Z 21009KT 31/16 A3018 RMK A01 T03140160  RH  039%=      5-min Rain = 0
KEA1 201750Z 20006G11KT 31/16 A3018 RMK A01 T03140158  RH  039%=      5-min Rain = 0
KEA1 201751Z 18008KT 31/16 A3018 RMK A01 T03120159  RH  040%=      5-min Rain = 0
KEA1 201752Z 17006KT 31/16 A3018 RMK A01 T03120160  RH  040%=      5-min Rain = 0
KEA1 201753Z 22007KT 31/16 A3018 RMK A01 T03130163  RH  041%=      5-min Rain = 0
KEA1 201754Z 23006KT 31/17 A3018 RMK A01 T03140166  RH  041%=      5-min Rain = 0
KEA1 201755Z 24007KT 32/17 A3018 RMK A01 T03160169  RH  041%=      5-min Rain = 0
KEA1 201756Z 20010KT 32/17 A3018 RMK A01 T03160168  RH  041%=      5-min Rain = 0
KEA1 201757Z 20009KT 32/17 A3018 RMK A01 T03160165  RH  040%=      5-min Rain = 0
KEA1 201758Z 21005KT 31/16 A3018 RMK A01 T03140164  RH  041%=      5-min Rain = 0
KEA1 201759Z 21006G12KT 32/17 A3018 RMK A01 T03150166  RH  041%=      5-min Rain = 0
KEA1 201800Z 19007G12KT 32/17 A3018 RMK A01 T03180168  RH  040%=      5-min Rain = 0
KEA1 201801Z 20007KT 32/17 A3018 RMK A01 T03170169  RH  041%=      5-min Rain = 0
KEA1 201802Z 23009KT 32/17 A3018 RMK A01 T03160168  RH  041%=      5-min Rain = 0
KEA1 201803Z 23008KT 32/17 A3018 RMK A01 T03170166  RH  040%=      5-min Rain = 0
KEA1 201804Z 21008KT 32/17 A3018 RMK A01 T03170167  RH  041%=      5-min Rain = 0
KEA1 201805Z 19007KT 32/17 A3018 RMK A01 T03170165  RH  040%=      5-min Rain = 0
KEA1 201806Z 18005KT 32/17 A3018 RMK A01 T03160165  RH  040%=      5-min Rain = 0
KEA1 201807Z 21008KT 32/17 A3018 RMK A01 T03150167  RH  041%=      5-min Rain = 0
KEA1 201808Z 21009KT 32/16 A3018 RMK A01 T03170163  RH  040%=      5-min Rain = 0
KEA1 201809Z 20008KT 32/16 A3018 RMK A01 T03170163  RH  040%=      5-min Rain = 0
KEA1 201810Z 20009KT 32/16 A3018 RMK A01 T03170163  RH  040%=      5-min Rain = 0
KEA1 201811Z 20009KT 32/16 A3018 RMK A01 T03160163  RH  040%=      5-min Rain = 0
KEA1 201812Z 21007KT 31/16 A3018 RMK A01 T03140162  RH  040%=      5-min Rain = 0
KEA1 201813Z 20011KT 31/16 A3018 RMK A01 T03120162  RH  041%=      5-min Rain = 0
KEA1 201814Z 21007KT 31/16 A3018 RMK A01 T03120160  RH  040%=      5-min Rain = 0
KEA1 201815Z 22006KT 31/16 A3018 RMK A01 T03130161  RH  040%=      5-min Rain = 0
KEA1 201816Z 20004KT 32/16 A3018 RMK A01 T03150160  RH  039%=      5-min Rain = 0
KEA1 201817Z 18003KT 32/16 A3018 RMK A01 T03150159  RH  039%=      5-min Rain = 0
KEA1 201818Z 18004KT 31/16 A3018 RMK A01 T03140159  RH  039%=      5-min Rain = 0
KEA1 201819Z 20006KT 31/16 A3017 RMK A01 T03140161  RH  040%=      5-min Rain = 0
KEA1 201820Z 20008KT 32/16 A3017 RMK A01 T03160163  RH  040%=      5-min Rain = 0
KEA1 201821Z 20007KT 32/16 A3017 RMK A01 T03170163  RH  040%=      5-min Rain = 0
KEA1 201822Z 20005KT 31/16 A3017 RMK A01 T03130162  RH  040%=      5-min Rain = 0
KEA1 201823Z 16004KT 31/16 A3017 RMK A01 T03120162  RH  040%=      5-min Rain = 0
KEA1 201824Z 12002KT 31/16 A3017 RMK A01 T03120160  RH  040%=      5-min Rain = 0
KEA1 201825Z 16000KT 31/16 A3017 RMK A01 T03120161  RH  040%=      5-min Rain = 0
KEA1 201826Z 16000KT 31/16 A3017 RMK A01 T03120162  RH  040%=      5-min Rain = 0
KEA1 201827Z 23001KT 31/16 A3017 RMK A01 T03130162  RH  040%=      5-min Rain = 0
KEA1 201828Z 18006KT 31/16 A3017 RMK A01 T03140162  RH  040%=      5-min Rain = 0
KEA1 201829Z 18007KT 32/16 A3017 RMK A01 T03170161  RH  039%=      5-min Rain = 0
KEA1 201830Z 20007KT 32/16 A3017 RMK A01 T03180160  RH  039%=      5-min Rain = 0
KEA1 201831Z 22007KT 32/16 A3017 RMK A01 T03160160  RH  039%=      5-min Rain = 0
KEA1 201832Z 20008KT 32/16 A3017 RMK A01 T03150160  RH  039%=      5-min Rain = 0
KEA1 201833Z 19008KT 31/16 A3017 RMK A01 T03140159  RH  039%=      5-min Rain = 0
KEA1 201834Z 19007KT 31/16 A3017 RMK A01 T03140159  RH  039%=      5-min Rain = 0
KEA1 201835Z 20006KT 31/16 A3017 RMK A01 T03140158  RH  039%=      5-min Rain = 0
KEA1 201836Z 20007KT 32/16 A3017 RMK A01 T03150159  RH  039%=      5-min Rain = 0
KEA1 201837Z 20004KT 32/16 A3017 RMK A01 T03150158  RH  039%=      5-min Rain = 0
KEA1 201838Z 17003KT 31/16 A3017 RMK A01 T03140158  RH  039%=      5-min Rain = 0
KEA1 201839Z 22004KT 31/16 A3017 RMK A01 T03140158  RH  039%=      5-min Rain = 0
KEA1 201840Z 22006KT 32/16 A3017 RMK A01 T03150159  RH  039%=      5-min Rain = 0
KEA1 201841Z 20007KT 32/16 A3017 RMK A01 T03190159  RH  038%=      5-min Rain = 0
KEA1 201842Z 19005KT 32/16 A3017 RMK A01 T03200157  RH  038%=      5-min Rain = 0
KEA1 201843Z 19004KT 32/16 A3017 RMK A01 T03180158  RH  038%=      5-min Rain = 0
KEA1 201844Z 21006KT 32/16 A3017 RMK A01 T03170156  RH  038%=      5-min Rain = 0
KEA1 201845Z 19004KT 32/16 A3017 RMK A01 T03170156  RH  038%=      5-min Rain = 0
KEA1 201846Z 19006KT 32/16 A3017 RMK A01 T03170158  RH  038%=      5-min Rain = 0
KEA1 201847Z 16008KT 32/16 A3017 RMK A01 T03200159  RH  038%=      5-min Rain = 0
KEA1 201848Z 16008KT 32/16 A3017 RMK A01 T03240160  RH  037%=      5-min Rain = 0
KEA1 201849Z 17006KT 32/16 A3017 RMK A01 T03230159  RH  037%=      5-min Rain = 0
KEA1 201850Z 15007KT 32/16 A3017 RMK A01 T03210160  RH  038%=      5-min Rain = 0
KEA1 201851Z 18008KT 32/16 A3017 RMK A01 T03220158  RH  037%=      5-min Rain = 0
KEA1 201852Z 18007KT 33/16 A3017 RMK A01 T03250156  RH  036%=      5-min Rain = 0
KEA1 201853Z 17008KT 32/16 A3017 RMK A01 T03240157  RH  037%=      5-min Rain = 0
KEA1 201854Z 19009KT 32/16 A3017 RMK A01 T03230158  RH  037%=      5-min Rain = 0
KEA1 201855Z 20010KT 32/16 A3017 RMK A01 T03230155  RH  036%=      5-min Rain = 0
KEA1 201856Z 19010KT 32/16 A3017 RMK A01 T03210155  RH  037%=      5-min Rain = 0
KEA1 201857Z 18007KT 32/16 A3017 RMK A01 T03210155  RH  037%=      5-min Rain = 0
KEA1 201858Z 17008KT 32/16 A3017 RMK A01 T03210156  RH  037%=      5-min Rain = 0
KEA1 201859Z 17005KT 32/16 A3017 RMK A01 T03220155  RH  037%=      5-min Rain = 0
KEA1 201900Z 15004KT 32/16 A3016 RMK A01 T03210155  RH  037%=      5-min Rain = 0
KEA1 201901Z 14004KT 32/16 A3016 RMK A01 T03210155  RH  037%=      5-min Rain = 0
KEA1 201902Z 16004KT 32/16 A3016 RMK A01 T03210156  RH  037%=      5-min Rain = 0
KEA1 201903Z 17005KT 32/16 A3016 RMK A01 T03220155  RH  037%=      5-min Rain = 0
KEA1 201904Z 19006KT 32/16 A3016 RMK A01 T03230155  RH  036%=      5-min Rain = 0
KEA1 201905Z 21008KT 32/15 A3016 RMK A01 T03230154  RH  036%=      5-min Rain = 0
KEA1 201906Z 20006KT 32/15 A3016 RMK A01 T03230154  RH  036%=      5-min Rain = 0
KEA1 201907Z 21005KT 32/15 A3016 RMK A01 T03230154  RH  036%=      5-min Rain = 0
KEA1 201908Z 22008KT 32/15 A3016 RMK A01 T03210153  RH  036%=      5-min Rain = 0
KEA1 201909Z 22006KT 32/15 A3016 RMK A01 T03220152  RH  036%=      5-min Rain = 0
KEA1 201910Z 19008KT 32/15 A3016 RMK A01 T03240152  RH  036%=      5-min Rain = 0
KEA1 201911Z 21007KT 32/15 A3016 RMK A01 T03240153  RH  036%=      5-min Rain = 0
KEA1 201912Z 21010KT 33/15 A3016 RMK A01 T03250153  RH  036%=      5-min Rain = 0
KEA1 201913Z 21008KT 32/15 A3016 RMK A01 T03240150  RH  035%=      5-min Rain = 0
KEA1 201914Z 18007KT 32/15 A3016 RMK A01 T03230150  RH  035%=      5-min Rain = 0
KEA1 201915Z 18007KT 32/15 A3016 RMK A01 T03240151  RH  035%=      5-min Rain = 0
KEA1 201916Z 17006KT 32/15 A3016 RMK A01 T03240149  RH  035%=      5-min Rain = 0
KEA1 201917Z 15006KT 32/15 A3016 RMK A01 T03240149  RH  035%=      5-min Rain = 0
KEA1 201918Z 13004KT 32/15 A3016 RMK A01 T03240149  RH  035%=      5-min Rain = 0
KEA1 201919Z 18004KT 33/15 A3016 RMK A01 T03250148  RH  035%=      5-min Rain = 0
KEA1 201920Z 18003KT 33/15 A3016 RMK A01 T03250150  RH  035%=      5-min Rain = 0
KEA1 201921Z 18002KT 33/15 A3016 RMK A01 T03250150  RH  035%=      5-min Rain = 0
KEA1 201922Z 17005KT 33/15 A3016 RMK A01 T03280148  RH  034%=      5-min Rain = 0
KEA1 201923Z 18009KT 33/14 A3016 RMK A01 T03300139  RH  031%=      5-min Rain = 0
KEA1 201924Z 18008KT 33/13 A3016 RMK A01 T03300130  RH  030%=      5-min Rain = 0
KEA1 201925Z 20007KT 33/13 A3016 RMK A01 T03290131  RH  030%=      5-min Rain = 0
KEA1 201926Z 22004KT 33/14 A3016 RMK A01 T03260136  RH  031%=      5-min Rain = 0
KEA1 201927Z 20004KT 32/14 A3016 RMK A01 T03240137  RH  032%=      5-min Rain = 0
KEA1 201928Z 18005KT 33/14 A3015 RMK A01 T03270139  RH  032%=      5-min Rain = 0
KEA1 201929Z 18006KT 33/14 A3015 RMK A01 T03290138  RH  032%=      5-min Rain = 0
KEA1 201930Z 17008KT 33/14 A3015 RMK A01 T03300138  RH  031%=      5-min Rain = 0
KEA1 201931Z 16009KT 33/14 A3015 RMK A01 T03330136  RH  030%=      5-min Rain = 0
KEA1 201932Z 16007KT 33/13 A3015 RMK A01 T03340132  RH  029%=      5-min Rain = 0
KEA1 201933Z 15004KT 33/13 A3015 RMK A01 T03330132  RH  030%=      5-min Rain = 0
KEA1 201934Z 16003KT 33/13 A3015 RMK A01 T03310132  RH  030%=      5-min Rain = 0
KEA1 201935Z 16007KT 33/14 A3015 RMK A01 T03300137  RH  031%=      5-min Rain = 0
KEA1 201936Z 16010KT 33/14 A3015 RMK A01 T03310139  RH  031%=      5-min Rain = 0
KEA1 201937Z 15006KT 33/14 A3015 RMK A01 T03320141  RH  031%=      5-min Rain = 0
KEA1 201938Z 17008KT 33/14 A3015 RMK A01 T03310141  RH  032%=      5-min Rain = 0
KEA1 201939Z 18006KT 33/14 A3015 RMK A01 T03330140  RH  031%=      5-min Rain = 0
KEA1 201940Z 19003KT 33/14 A3015 RMK A01 T03310140  RH  032%=      5-min Rain = 0
KEA1 201941Z 18006G12KT 33/14 A3015 RMK A01 T03290141  RH  032%=      5-min Rain = 0
KEA1 201942Z 15009KT 34/14 A3015 RMK A01 T03350143  RH  032%=      5-min Rain = 0
KEA1 201943Z 18008KT 34/15 A3015 RMK A01 T03420147  RH  031%=      5-min Rain = 0
KEA1 201944Z 17010KT 35/15 A3015 RMK A01 T03460147  RH  030%=      5-min Rain = 0
KEA1 201945Z 18008KT 34/15 A3015 RMK A01 T03420146  RH  031%=      5-min Rain = 0
KEA1 201946Z 19009KT 34/15 A3015 RMK A01 T03400147  RH  031%=      5-min Rain = 0
KEA1 201947Z 16008KT 34/15 A3015 RMK A01 T03420149  RH  032%=      5-min Rain = 0
KEA1 201948Z 17006KT 35/15 A3015 RMK A01 T03450150  RH  031%=      5-min Rain = 0
KEA1 201949Z 17006KT 35/15 A3015 RMK A01 T03450148  RH  031%=      5-min Rain = 0
KEA1 201950Z 18003KT 34/15 A3015 RMK A01 T03420148  RH  031%=      5-min Rain = 0
KEA1 201951Z 17006KT 34/15 A3015 RMK A01 T03380147  RH  032%=      5-min Rain = 0
KEA1 201952Z 16005KT 34/15 A3015 RMK A01 T03380147  RH  032%=      5-min Rain = 0
KEA1 201953Z 19004KT 34/15 A3015 RMK A01 T03380147  RH  032%=      5-min Rain = 0
KEA1 201954Z 18005KT 34/15 A3015 RMK A01 T03380148  RH  032%=      5-min Rain = 0
KEA1 201955Z 18007KT 34/15 A3015 RMK A01 T03380148  RH  032%=      5-min Rain = 0
KEA1 201956Z 19006KT 34/15 A3014 RMK A01 T03380149  RH  032%=      5-min Rain = 0
KEA1 201957Z 19008KT 34/15 A3014 RMK A01 T03390148  RH  032%=      5-min Rain = 0
KEA1 201958Z 22008KT 34/15 A3014 RMK A01 T03380148  RH  032%=      5-min Rain = 0
KEA1 201959Z 20006KT 34/15 A3014 RMK A01 T03350147  RH  032%=      5-min Rain = 0
KEA1 202000Z 18007KT 34/15 A3014 RMK A01 T03350148  RH  032%=      5-min Rain = 0
KEA1 202001Z 14011KT 34/15 A3014 RMK A01 T03350149  RH  033%=      5-min Rain = 0
KEA1 202002Z 15008KT 34/15 A3014 RMK A01 T03360149  RH  033%=      5-min Rain = 0
KEA1 202003Z 13006KT 34/15 A3014 RMK A01 T03350149  RH  033%=      5-min Rain = 0
KEA1 202004Z 13005KT 33/15 A3014 RMK A01 T03330148  RH  033%=      5-min Rain = 0
KEA1 202005Z 12002KT 33/15 A3014 RMK A01 T03310148  RH  033%=      5-min Rain = 0
KEA1 202006Z 08001KT 33/15 A3014 RMK A01 T03300149  RH  034%=      5-min Rain = 0
KEA1 202007Z 14001KT 33/15 A3014 RMK A01 T03320149  RH  033%=      5-min Rain = 0
KEA1 202008Z 20004KT 34/15 A3014 RMK A01 T03350150  RH  033%=      5-min Rain = 0
KEA1 202009Z 14006KT 34/15 A3014 RMK A01 T03370151  RH  033%=      5-min Rain = 0
KEA1 202010Z 15010KT 34/15 A3014 RMK A01 T03400151  RH  032%=      5-min Rain = 0
KEA1 202011Z 13008KT 34/15 A3014 RMK A01 T03410150  RH  032%=      5-min Rain = 0
KEA1 202012Z 14006G12KT 34/15 A3013 RMK A01 T03400151  RH  032%=      5-min Rain = 0
KEA1 202013Z 16009KT 34/15 A3013 RMK A01 T03410149  RH  032%=      5-min Rain = 0
KEA1 202014Z 15010KT 34/15 A3013 RMK A01 T03410148  RH  032%=      5-min Rain = 0
KEA1 202015Z 14009KT 34/15 A3013 RMK A01 T03410148  RH  031%=      5-min Rain = 0
KEA1 202016Z 16009KT 34/15 A3013 RMK A01 T03410148  RH  032%=      5-min Rain = 0
KEA1 202017Z 15006KT 34/15 A3013 RMK A01 T03410149  RH  032%=      5-min Rain = 0
KEA1 202018Z 12009KT 34/15 A3013 RMK A01 T03410149  RH  031%=      5-min Rain = 0
KEA1 202019Z 14011KT 34/15 A3013 RMK A01 T03410149  RH  032%=      5-min Rain = 0
KEA1 202020Z 14010KT 34/15 A3013 RMK A01 T03400151  RH  032%=      5-min Rain = 0
KEA1 202021Z 15010KT 34/15 A3013 RMK A01 T03370151  RH  033%=      5-min Rain = 0
KEA1 202022Z 15006KT 34/15 A3013 RMK A01 T03350151  RH  033%=      5-min Rain = 0
KEA1 202023Z 14007KT 34/15 A3013 RMK A01 T03350151  RH  033%=      5-min Rain = 0
KEA1 202024Z 16007KT 34/15 A3013 RMK A01 T03360150  RH  033%=      5-min Rain = 0
KEA1 202025Z 15008KT 34/15 A3013 RMK A01 T03350150  RH  033%=      5-min Rain = 0
KEA1 202026Z 14010KT 34/15 A3013 RMK A01 T03350151  RH  033%=      5-min Rain = 0
KEA1 202027Z 14010KT 34/15 A3013 RMK A01 T03350150  RH  033%=      5-min Rain = 0
KEA1 202028Z 14009KT 34/15 A3013 RMK A01 T03370149  RH  032%=      5-min Rain = 0
KEA1 202029Z 14013KT 34/15 A3013 RMK A01 T03390149  RH  032%=      5-min Rain = 0
KEA1 202030Z 15010KT 34/15 A3013 RMK A01 T03370147  RH  032%=      5-min Rain = 0
KEA1 202031Z 15011KT 33/15 A3013 RMK A01 T03340148  RH  033%=      5-min Rain = 0
KEA1 202032Z 15012KT 33/15 A3013 RMK A01 T03340148  RH  033%=      5-min Rain = 0
KEA1 202033Z 14009KT 33/15 A3013 RMK A01 T03340149  RH  033%=      5-min Rain = 0
KEA1 202034Z 14008KT 33/15 A3013 RMK A01 T03340147  RH  032%=      5-min Rain = 0
KEA1 202035Z 13009KT 33/15 A3012 RMK A01 T03340145  RH  032%=      5-min Rain = 0
KEA1 202036Z 15010KT 33/15 A3012 RMK A01 T03330145  RH  032%=      5-min Rain = 0
KEA1 202037Z 14010KT 33/15 A3012 RMK A01 T03340147  RH  033%=      5-min Rain = 0
KEA1 202038Z 14007KT 33/15 A3012 RMK A01 T03340147  RH  032%=      5-min Rain = 0
KEA1 202039Z 16010KT 34/15 A3012 RMK A01 T03360145  RH  032%=      5-min Rain = 0
KEA1 202040Z 15011KT 34/14 A3012 RMK A01 T03360141  RH  031%=      5-min Rain = 0
KEA1 202041Z 14011G16KT 34/14 A3012 RMK A01 T03360141  RH  031%=      5-min Rain = 0
KEA1 202042Z 14011KT 34/14 A3012 RMK A01 T03360141  RH  031%=      5-min Rain = 0
KEA1 202043Z 13008KT 34/14 A3012 RMK A01 T03370142  RH  031%=      5-min Rain = 0
KEA1 202044Z 13010KT 34/14 A3012 RMK A01 T03380142  RH  031%=      5-min Rain = 0
KEA1 202045Z 13010KT 34/14 A3012 RMK A01 T03390140  RH  030%=      5-min Rain = 0
KEA1 202046Z 14011KT 34/14 A3012 RMK A01 T03390141  RH  030%=      5-min Rain = 0
KEA1 202047Z 15013KT 34/14 A3012 RMK A01 T03390140  RH  030%=      5-min Rain = 0
KEA1 202048Z 13010KT 34/14 A3012 RMK A01 T03400138  RH  030%=      5-min Rain = 0
KEA1 202049Z 14010KT 34/14 A3011 RMK A01 T03400138  RH  030%=      5-min Rain = 0
KEA1 202050Z 17010KT 34/14 A3011 RMK A01 T03430137  RH  029%=      5-min Rain = 0
KEA1 202051Z 16011KT 35/13 A3011 RMK A01 T03460134  RH  028%=      5-min Rain = 0
KEA1 202052Z 15011KT 35/13 A3011 RMK A01 T03460132  RH  028%=      5-min Rain = 0
KEA1 202053Z 15012KT 35/13 A3011 RMK A01 T03450131  RH  028%=      5-min Rain = 0
KEA1 202054Z 16010KT 34/13 A3011 RMK A01 T03430129  RH  027%=      5-min Rain = 0
KEA1 202055Z 17010KT 34/13 A3011 RMK A01 T03420130  RH  028%=      5-min Rain = 0
KEA1 202056Z 16010KT 34/13 A3011 RMK A01 T03410130  RH  028%=      5-min Rain = 0
KEA1 202057Z 15011KT 34/13 A3011 RMK A01 T03420129  RH  028%=      5-min Rain = 0
KEA1 202058Z 16011KT 34/13 A3011 RMK A01 T03440127  RH  027%=      5-min Rain = 0
KEA1 202059Z 17012KT 35/12 A3011 RMK A01 T03470124  RH  026%=      5-min Rain = 0
KEA1 202100Z 16013KT 35/12 A3011 RMK A01 T03480120  RH  025%=      5-min Rain = 0
KEA1 202101Z 16010KT 35/12 A3011 RMK A01 T03470123  RH  026%=      5-min Rain = 0
KEA1 202102Z 16009KT 35/13 A3011 RMK A01 T03490125  RH  026%=      5-min Rain = 0
KEA1 202103Z 15009G14KT 35/12 A3011 RMK A01 T03500124  RH  026%=      5-min Rain = 0
KEA1 202104Z 15014KT 35/13 A3011 RMK A01 T03540125  RH  025%=      5-min Rain = 0
KEA1 202105Z 15012KT 36/13 A3011 RMK A01 T03550127  RH  025%=      5-min Rain = 0
KEA1 202106Z 14012KT 35/13 A3011 RMK A01 T03520125  RH  025%=      5-min Rain = 0
KEA1 202107Z 15013KT 35/13 A3011 RMK A01 T03510125  RH  026%=      5-min Rain = 0
KEA1 202108Z 15014KT 35/12 A3011 RMK A01 T03520123  RH  025%=      5-min Rain = 0
KEA1 202109Z 15014KT 35/12 A3011 RMK A01 T03530122  RH  025%=      5-min Rain = 0
KEA1 202110Z 17011KT 36/13 A3011 RMK A01 T03570126  RH  025%=      5-min Rain = 0
KEA1 202111Z 17014KT 36/13 A301 RMK A01 T03590125  RH  025%=      5-min Rain = 0
KEA1 202112Z 16013KT 36/12 A301 RMK A01 T03580123  RH  024%=      5-min Rain = 0
KEA1 202113Z 16015KT 36/12 A301 RMK A01 T03570118  RH  024%=      5-min Rain = 0
KEA1 202114Z 17014KT 36/12 A301 RMK A01 T03550117  RH  024%=      5-min Rain = 0
KEA1 202115Z 16017KT 35/11 A301 RMK A01 T03520111  RH  023%=      5-min Rain = 0
KEA1 202116Z 16015KT 35/11 A301 RMK A01 T03470113  RH  024%=      5-min Rain = 0
KEA1 202117Z 17013KT 34/11 A301 RMK A01 T03440113  RH  025%=      5-min Rain = 0
KEA1 202118Z 18011KT 34/12 A301 RMK A01 T03430115  RH  025%=      5-min Rain = 0
KEA1 202119Z 17014KT 35/12 A301 RMK A01 T03450116  RH  025%=      5-min Rain = 0
KEA1 202120Z 15015KT 35/12 A301 RMK A01 T03460115  RH  025%=      5-min Rain = 0
KEA1 202121Z 15014KT 35/12 A301 RMK A01 T03450116  RH  025%=      5-min Rain = 0
KEA1 202122Z 15014KT 34/12 A301 RMK A01 T03440116  RH  025%=      5-min Rain = 0
KEA1 202123Z 15012KT 34/12 A301 RMK A01 T03430116  RH  025%=      5-min Rain = 0
KEA1 202124Z 15009KT 34/12 A301 RMK A01 T03420118  RH  026%=      5-min Rain = 0
KEA1 202125Z 16010KT 34/12 A301 RMK A01 T03420118  RH  026%=      5-min Rain = 0
KEA1 202126Z 16011KT 34/12 A301 RMK A01 T03430116  RH  025%=      5-min Rain = 0
KEA1 202127Z 16010KT 34/12 A301 RMK A01 T03440116  RH  025%=      5-min Rain = 0
KEA1 202128Z 15011KT 35/12 A301 RMK A01 T03450116  RH  025%=      5-min Rain = 0
KEA1 202129Z 14011G17KT 35/12 A301 RMK A01 T03460115  RH  025%=      5-min Rain = 0
KEA1 202130Z 15013KT 35/11 A301 RMK A01 T03470112  RH  024%=      5-min Rain = 0
KEA1 202131Z 15013KT 35/11 A301 RMK A01 T03470112  RH  024%=      5-min Rain = 0
KEA1 202132Z 14013KT 35/11 A301 RMK A01 T03470109  RH  024%=      5-min Rain = 0
KEA1 202133Z 15013KT 35/11 A301 RMK A01 T03470106  RH  023%=      5-min Rain = 0
KEA1 202134Z 18013KT 35/10 A301 RMK A01 T03470103  RH  023%=      5-min Rain = 0
KEA1 202135Z 17015KT 35/10 A301 RMK A01 T03470101  RH  022%=      5-min Rain = 0
KEA1 202136Z 15011KT 35/10 A301 RMK A01 T03480104  RH  023%=      5-min Rain = 0
KEA1 202137Z 16009KT 35/11 A301 RMK A01 T03500109  RH  023%=      5-min Rain = 0
KEA1 202138Z 17012KT 35/10 A301 RMK A01 T03530101  RH  022%=      5-min Rain = 0
KEA1 202139Z 17010KT 36/10 A3009 RMK A01 T03550097  RH  021%=      5-min Rain = 0
KEA1 202140Z 16013KT 35/11 A301 RMK A01 T03540105  RH  022%=      5-min Rain = 0
KEA1 202141Z 16013KT 36/11 A301 RMK A01 T03550108  RH  022%=      5-min Rain = 0
KEA1 202142Z 14014KT 36/11 A301 RMK A01 T03550108  RH  022%=      5-min Rain = 0
KEA1 202143Z 14012KT 36/10 A301 RMK A01 T03550104  RH  022%=      5-min Rain = 0
KEA1 202144Z 14011KT 36/10 A301 RMK A01 T03560104  RH  022%=      5-min Rain = 0
KEA1 202145Z 15013KT 36/11 A301 RMK A01 T03610105  RH  021%=      5-min Rain = 0
KEA1 202146Z 14013KT 36/10 A301 RMK A01 T03630099  RH  020%=      5-min Rain = 0
KEA1 202147Z 16017G22KT 36/11 A3009 RMK A01 T03640105  RH  021%=      5-min Rain = 0
KEA1 202148Z 16017KT 37/11 A3009 RMK A01 T03650106  RH  021%=      5-min Rain = 0
KEA1 202149Z 16012KT 36/10 A3009 RMK A01 T03640104  RH  021%=      5-min Rain = 0
KEA1 202150Z 15013KT 36/11 A3009 RMK A01 T03630106  RH  021%=      5-min Rain = 0
KEA1 202151Z 15013KT 36/11 A3009 RMK A01 T03640110  RH  022%=      5-min Rain = 0
KEA1 202152Z 16016G21KT 37/11 A3009 RMK A01 T03650113  RH  022%=      5-min Rain = 0
KEA1 202153Z 16015G22KT 36/11 A3009 RMK A01 T03600108  RH  022%=      5-min Rain = 0
KEA1 202154Z 17015KT 36/11 A3009 RMK A01 T03550109  RH  023%=      5-min Rain = 0
KEA1 202155Z 16014KT 35/11 A3009 RMK A01 T03530111  RH  023%=      5-min Rain = 0
KEA1 202156Z 15015KT 35/11 A3009 RMK A01 T03530111  RH  023%=      5-min Rain = 0
KEA1 202157Z 15012KT 35/11 A3009 RMK A01 T03540113  RH  023%=      5-min Rain = 0
KEA1 202158Z 15014G19KT 35/12 A3009 RMK A01 T03520117  RH  024%=      5-min Rain = 0
KEA1 202159Z 14016KT 35/12 A3009 RMK A01 T03490120  RH  025%=      5-min Rain = 0
KEA1 202200Z 14017KT 35/12 A3009 RMK A01 T03470123  RH  026%=      5-min Rain = 0
KEA1 202201Z 14018KT 35/12 A3009 RMK A01 T03450123  RH  026%=      5-min Rain = 0
KEA1 202202Z 15019KT 35/12 A3009 RMK A01 T03450124  RH  026%=      5-min Rain = 0
KEA1 202203Z 15014KT 34/12 A3009 RMK A01 T03440123  RH  026%=      5-min Rain = 0
KEA1 202204Z 15015KT 34/12 A3009 RMK A01 T03440121  RH  026%=      5-min Rain = 0
KEA1 202205Z 13013KT 35/12 A3009 RMK A01 T03450119  RH  025%=      5-min Rain = 0
KEA1 202206Z 14017KT 35/12 A3008 RMK A01 T03480123  RH  026%=      5-min Rain = 0
KEA1 202207Z 14014KT 35/12 A3008 RMK A01 T03530123  RH  025%=      5-min Rain = 0
KEA1 202208Z 15014KT 35/12 A3008 RMK A01 T03540122  RH  025%=      5-min Rain = 0
KEA1 202209Z 15016KT 36/12 A3008 RMK A01 T03560117  RH  024%=      5-min Rain = 0
KEA1 202210Z 14014KT 36/12 A3008 RMK A01 T03580115  RH  023%=      5-min Rain = 0
KEA1 202211Z 15017G22KT 36/12 A3008 RMK A01 T03590115  RH  023%=      5-min Rain = 0
KEA1 202212Z 15017KT 36/12 A3008 RMK A01 T03590118  RH  023%=      5-min Rain = 0
KEA1 202213Z 15013KT 36/12 A3008 RMK A01 T03570119  RH  024%=      5-min Rain = 0
KEA1 202214Z 14010G15KT 36/12 A3008 RMK A01 T03550119  RH  024%=      5-min Rain = 0
KEA1 202215Z 13014KT 36/12 A3008 RMK A01 T03590119  RH  024%=      5-min Rain = 0
KEA1 202216Z 15013KT 36/12 A3008 RMK A01 T03610116  RH  023%=      5-min Rain = 0
KEA1 202217Z 17013KT 36/11 A3008 RMK A01 T03640114  RH  022%=      5-min Rain = 0
KEA1 202218Z 15015KT 36/11 A3008 RMK A01 T03630113  RH  022%=      5-min Rain = 0
KEA1 202219Z 14017KT 36/11 A3008 RMK A01 T03620114  RH  022%=      5-min Rain = 0
KEA1 202220Z 14017KT 36/11 A3008 RMK A01 T03600114  RH  023%=      5-min Rain = 0
KEA1 202221Z 14018KT 36/11 A3008 RMK A01 T03600112  RH  022%=      5-min Rain = 0
KEA1 202222Z 14014KT 36/11 A3008 RMK A01 T03570114  RH  023%=      5-min Rain = 0
KEA1 202223Z 15012KT 36/12 A3008 RMK A01 T03560116  RH  023%=      5-min Rain = 0
KEA1 202224Z 16012KT 36/12 A3008 RMK A01 T03590118  RH  023%=      5-min Rain = 0
KEA1 202225Z 15015KT 36/12 A3008 RMK A01 T03620118  RH  023%=      5-min Rain = 0
KEA1 202226Z 14013KT 36/12 A3008 RMK A01 T03620116  RH  023%=      5-min Rain = 0
KEA1 202227Z 14014G19KT 36/11 A3008 RMK A01 T03620113  RH  022%=      5-min Rain = 0
KEA1 202228Z 15014KT 36/11 A3008 RMK A01 T03620110  RH  022%=      5-min Rain = 0
KEA1 202229Z 15013KT 36/11 A3008 RMK A01 T03610105  RH  021%=      5-min Rain = 0
KEA1 202230Z 15014KT 36/10 A3008 RMK A01 T03600103  RH  021%=      5-min Rain = 0
KEA1 202231Z 15012KT 36/10 A3008 RMK A01 T03600102  RH  021%=      5-min Rain = 0
KEA1 202232Z 15012KT 36/10 A3008 RMK A01 T03620102  RH  021%=      5-min Rain = 0
KEA1 202233Z 14015G21KT 37/10 A3008 RMK A01 T03650102  RH  020%=      5-min Rain = 0
KEA1 202234Z 14015KT 37/10 A3008 RMK A01 T03650102  RH  020%=      5-min Rain = 0
KEA1 202235Z 14018KT 36/10 A3008 RMK A01 T03620104  RH  021%=      5-min Rain = 0
KEA1 202236Z 14016KT 36/11 A3008 RMK A01 T03600107  RH  022%=      5-min Rain = 0
KEA1 202237Z 15015G20KT 36/11 A3008 RMK A01 T03580108  RH  022%=      5-min Rain = 0
KEA1 202238Z 15017KT 36/11 A3008 RMK A01 T03580106  RH  022%=      5-min Rain = 0
KEA1 202239Z 14015KT 36/11 A3008 RMK A01 T03580105  RH  022%=      5-min Rain = 0
KEA1 202240Z 15017G22KT 36/11 A3008 RMK A01 T03590106  RH  022%=      5-min Rain = 0
KEA1 202241Z 14015KT 36/11 A3008 RMK A01 T03590106  RH  022%=      5-min Rain = 0
KEA1 202242Z 16013KT 36/11 A3008 RMK A01 T03590105  RH  022%=      5-min Rain = 0
KEA1 202243Z 15011KT 36/11 A3008 RMK A01 T03580106  RH  022%=      5-min Rain = 0
KEA1 202244Z 14015KT 36/11 A3008 RMK A01 T03590108  RH  022%=      5-min Rain = 0
KEA1 202245Z 14015KT 36/10 A3008 RMK A01 T03610104  RH  021%=      5-min Rain = 0
KEA1 202246Z 14016KT 36/10 A3008 RMK A01 T03590104  RH  021%=      5-min Rain = 0
KEA1 202247Z 13013KT 36/10 A3008 RMK A01 T03580101  RH  021%=      5-min Rain = 0
KEA1 202248Z 13014KT 36/10 A3008 RMK A01 T03560103  RH  021%=      5-min Rain = 0
KEA1 202249Z 14015KT 36/11 A3008 RMK A01 T03560105  RH  022%=      5-min Rain = 0
KEA1 202250Z 14013KT 36/11 A3008 RMK A01 T03590110  RH  022%=      5-min Rain = 0
KEA1 202251Z 14011KT 36/12 A3008 RMK A01 T03590116  RH  023%=      5-min Rain = 0
KEA1 202252Z 15015KT 36/11 A3008 RMK A01 T03610113  RH  022%=      5-min Rain = 0
KEA1 202253Z 14015KT 36/11 A3008 RMK A01 T03620113  RH  022%=      5-min Rain = 0
KEA1 202254Z 13013G19KT 36/11 A3008 RMK A01 T03590112  RH  022%=      5-min Rain = 0
KEA1 202255Z 13015KT 36/11 A3008 RMK A01 T03580109  RH  022%=      5-min Rain = 0
KEA1 202256Z 14014KT 36/11 A3008 RMK A01 T03600106  RH  022%=      5-min Rain = 0
KEA1 202257Z 14011KT 36/11 A3008 RMK A01 T03600107  RH  022%=      5-min Rain = 0
KEA1 202258Z 14011KT 36/11 A3008 RMK A01 T03600107  RH  022%=      5-min Rain = 0
KEA1 202259Z 13014KT 36/11 A3008 RMK A01 T03610107  RH  022%=      5-min Rain = 0
KEA1 202300Z 14014KT 36/11 A3008 RMK A01 T03590107  RH  022%=      5-min Rain = 0
KEA1 202301Z 14013KT 36/11 A3008 RMK A01 T03570105  RH  022%=      5-min Rain = 0
KEA1 202302Z 14011KT 36/11 A3008 RMK A01 T03550108  RH  022%=      5-min Rain = 0
KEA1 202303Z 14013KT 36/11 A3008 RMK A01 T03560112  RH  023%=      5-min Rain = 0
KEA1 202304Z 13010G16KT 36/11 A3008 RMK A01 T03590113  RH  023%=      5-min Rain = 0
KEA1 202305Z 13015KT 36/11 A3008 RMK A01 T03620107  RH  021%=      5-min Rain = 0
KEA1 202306Z 14012KT 36/10 A3008 RMK A01 T03620102  RH  021%=      5-min Rain = 0
KEA1 202307Z 14012KT 36/11 A3008 RMK A01 T03620107  RH  021%=      5-min Rain = 0
KEA1 202308Z 14015KT 36/11 A3008 RMK A01 T03610113  RH  022%=      5-min Rain = 0
KEA1 202309Z 14014KT 36/11 A3008 RMK A01 T03590114  RH  023%=      5-min Rain = 0
KEA1 202310Z 15014KT 36/11 A3008 RMK A01 T03600112  RH  022%=      5-min Rain = 0
KEA1 202311Z 16014KT 36/11 A3008 RMK A01 T03590111  RH  022%=      5-min Rain = 0
KEA1 202312Z 16011KT 36/10 A3008 RMK A01 T03580104  RH  021%=      5-min Rain = 0
KEA1 202313Z 17011KT 36/10 A3008 RMK A01 T03600098  RH  020%=      5-min Rain = 0
KEA1 202314Z 16011KT 36/09 A3008 RMK A01 T03600087  RH  019%=      5-min Rain = 0
KEA1 202315Z 16011KT 36/09 A3008 RMK A01 T03590094  RH  020%=      5-min Rain = 0
KEA1 202316Z 15009KT 36/10 A3008 RMK A01 T03590102  RH  021%=      5-min Rain = 0
KEA1 202317Z 16009KT 36/11 A3008 RMK A01 T03580110  RH  022%=      5-min Rain = 0
KEA1 202318Z 18011G16KT 36/10 A3008 RMK A01 T03580097  RH  020%=      5-min Rain = 0
KEA1 202319Z 18012KT 36/09 A3008 RMK A01 T03590093  RH  020%=      5-min Rain = 0
KEA1 202320Z 18014G19KT 36/09 A3008 RMK A01 T03580094  RH  020%=      5-min Rain = 0
KEA1 202321Z 17013KT 36/10 A3008 RMK A01 T03560096  RH  021%=      5-min Rain = 0
KEA1 202322Z 15009KT 35/10 A3008 RMK A01 T03530096  RH  021%=      5-min Rain = 0
KEA1 202323Z 16008KT 35/10 A3008 RMK A01 T03510098  RH  021%=      5-min Rain = 0
KEA1 202324Z 15008KT 35/10 A3008 RMK A01 T03490101  RH  022%=      5-min Rain = 0
KEA1 202325Z 13008G13KT 35/10 A3008 RMK A01 T03490103  RH  022%=      5-min Rain = 0
KEA1 202326Z 14014KT 35/10 A3008 RMK A01 T03490102  RH  022%=      5-min Rain = 0
KEA1 202327Z 15014KT 35/11 A3008 RMK A01 T03490106  RH  023%=      5-min Rain = 0
KEA1 202328Z 16012KT 35/11 A3008 RMK A01 T03480111  RH  024%=      5-min Rain = 0
KEA1 202329Z 16009KT 35/11 A3008 RMK A01 T03480113  RH  024%=      5-min Rain = 0
KEA1 202330Z 15007KT 35/11 A3008 RMK A01 T03480113  RH  024%=      5-min Rain = 0
KEA1 202331Z 15007KT 35/11 A3008 RMK A01 T03480113  RH  024%=      5-min Rain = 0
KEA1 202332Z 15009G14KT 35/11 A3008 RMK A01 T03490113  RH  024%=      5-min Rain = 0
KEA1 202333Z 15016KT 35/11 A3008 RMK A01 T03490114  RH  024%=      5-min Rain = 0
KEA1 202334Z 15011G16KT 35/11 A3008 RMK A01 T03470114  RH  024%=      5-min Rain = 0
KEA1 202335Z 15008KT 35/12 A3008 RMK A01 T03460117  RH  025%=      5-min Rain = 0
KEA1 202336Z 14008KT 35/12 A3008 RMK A01 T03460117  RH  025%=      5-min Rain = 0
KEA1 202337Z 15010KT 35/12 A3008 RMK A01 T03460116  RH  025%=      5-min Rain = 0
KEA1 202338Z 14013KT 35/12 A3008 RMK A01 T03470119  RH  025%=      5-min Rain = 0
KEA1 202339Z 15015KT 35/12 A3008 RMK A01 T03470120  RH  025%=      5-min Rain = 0
KEA1 202340Z 14014KT 35/12 A3008 RMK A01 T03470121  RH  025%=      5-min Rain = 0
KEA1 202341Z 15013KT 35/12 A3008 RMK A01 T03460122  RH  026%=      5-min Rain = 0
KEA1 202342Z 15014KT 35/12 A3008 RMK A01 T03450121  RH  026%=      5-min Rain = 0
KEA1 202343Z 15013KT 34/12 A3008 RMK A01 T03440121  RH  026%=      5-min Rain = 0
KEA1 202344Z 15011KT 34/12 A3008 RMK A01 T03430122  RH  026%=      5-min Rain = 0
KEA1 202345Z 14010KT 34/12 A3008 RMK A01 T03420123  RH  027%=      5-min Rain = 0
KEA1 202346Z 14011KT 34/12 A3008 RMK A01 T03410123  RH  027%=      5-min Rain = 0
KEA1 202347Z 14011KT 34/12 A3008 RMK A01 T03400122  RH  027%=      5-min Rain = 0
KEA1 202348Z 15010KT 34/12 A3008 RMK A01 T03400121  RH  027%=      5-min Rain = 0
KEA1 202349Z 17012KT 34/12 A3008 RMK A01 T03390123  RH  027%=      5-min Rain = 0
KEA1 202350Z 16012KT 34/12 A3008 RMK A01 T03390124  RH  027%=      5-min Rain = 0
KEA1 202351Z 16012KT 34/12 A3008 RMK A01 T03390124  RH  027%=      5-min Rain = 0
KEA1 202352Z 16012KT 34/12 A3008 RMK A01 T03400124  RH  027%=      5-min Rain = 0
KEA1 202353Z 14011KT 34/13 A3008 RMK A01 T03400125  RH  027%=      5-min Rain = 0
KEA1 202354Z 13012KT 34/13 A3008 RMK A01 T03400125  RH  027%=      5-min Rain = 0
KEA1 202355Z 14014KT 34/13 A3008 RMK A01 T03410126  RH  027%=      5-min Rain = 0
KEA1 202356Z 14012KT 34/13 A3008 RMK A01 T03410126  RH  027%=      5-min Rain = 0
KEA1 202357Z 14012KT 34/13 A3008 RMK A01 T03420126  RH  027%=      5-min Rain = 0
KEA1 202358Z 14012KT 34/13 A3008 RMK A01 T03420126  RH  027%=      5-min Rain = 0
KEA1 202359Z 15012KT 34/13 A3008 RMK A01 T03430126  RH  027%=      5-min Rain = 0
KEA1 210000Z 15012KT 34/13 A3008 RMK A01 T03440126  RH  027%=      5-min Rain = 0
KEA1 210001Z 15011KT 35/12 A3008 RMK A01 T03450124  RH  026%=      5-min Rain = 0
KEA1 210002Z 14011KT 34/12 A3008 RMK A01 T03440123  RH  026%=      5-min Rain = 0
KEA1 210003Z 14013KT 34/12 A3008 RMK A01 T03440119  RH  026%=      5-min Rain = 0
KEA1 210004Z 15011KT 34/12 A3008 RMK A01 T03430117  RH  026%=      5-min Rain = 0
KEA1 210005Z 15009KT 34/12 A3008 RMK A01 T03420119  RH  026%=      5-min Rain = 0
KEA1 210006Z 15011KT 34/12 A3008 RMK A01 T03420122  RH  026%=      5-min Rain = 0
KEA1 210007Z 15013KT 34/12 A3008 RMK A01 T03410123  RH  027%=      5-min Rain = 0
KEA1 210008Z 15011KT 34/12 A3008 RMK A01 T03410123  RH  027%=      5-min Rain = 0
KEA1 210009Z 15012KT 34/12 A3008 RMK A01 T03400123  RH  027%=      5-min Rain = 0
KEA1 210010Z 15014KT 34/12 A3008 RMK A01 T03400123  RH  027%=      5-min Rain = 0
KEA1 210011Z 15013KT 34/12 A3008 RMK A01 T03400124  RH  027%=      5-min Rain = 0
KEA1 210012Z 15012KT 34/13 A3008 RMK A01 T03390125  RH  027%=      5-min Rain = 0
KEA1 210013Z 15013KT 34/13 A3008 RMK A01 T03400127  RH  028%=      5-min Rain = 0
KEA1 210014Z 15011KT 34/13 A3008 RMK A01 T03390126  RH  028%=      5-min Rain = 0
KEA1 210015Z 14013KT 34/13 A3008 RMK A01 T03390126  RH  027%=      5-min Rain = 0
KEA1 210016Z 15014KT 34/13 A3008 RMK A01 T03390126  RH  027%=      5-min Rain = 0
KEA1 210017Z 14013KT 34/13 A3008 RMK A01 T03380127  RH  028%=      5-min Rain = 0
KEA1 210018Z 14011KT 34/13 A3008 RMK A01 T03380128  RH  028%=      5-min Rain = 0
KEA1 210019Z 15008KT 34/13 A3008 RMK A01 T03380128  RH  028%=      5-min Rain = 0
KEA1 210020Z 14010KT 34/13 A3008 RMK A01 T03380129  RH  028%=      5-min Rain = 0
KEA1 210021Z 14013KT 34/13 A3008 RMK A01 T03380130  RH  028%=      5-min Rain = 0
KEA1 210022Z 14011KT 34/13 A3008 RMK A01 T03380131  RH  029%=      5-min Rain = 0
KEA1 210023Z 14011KT 34/13 A3008 RMK A01 T03380131  RH  029%=      5-min Rain = 0
KEA1 210024Z 14012KT 34/13 A3008 RMK A01 T03370131  RH  029%=      5-min Rain = 0
KEA1 210025Z 14011KT 34/13 A3008 RMK A01 T03370131  RH  029%=      5-min Rain = 0
KEA1 210026Z 14012KT 34/13 A3008 RMK A01 T03360130  RH  029%=      5-min Rain = 0
KEA1 210027Z 14013KT 34/13 A3008 RMK A01 T03360129  RH  029%=      5-min Rain = 0
KEA1 210028Z 14011KT 34/13 A3008 RMK A01 T03360130  RH  029%=      5-min Rain = 0
KEA1 210029Z 15011KT 34/13 A3008 RMK A01 T03350131  RH  029%=      5-min Rain = 0
KEA1 210030Z 15012KT 34/13 A3008 RMK A01 T03350132  RH  029%=      5-min Rain = 0
KEA1 210031Z 14010KT 33/13 A3008 RMK A01 T03340132  RH  030%=      5-min Rain = 0
KEA1 210032Z 15010KT 33/13 A3008 RMK A01 T03340133  RH  030%=      5-min Rain = 0
KEA1 210033Z 15010KT 33/13 A3008 RMK A01 T03340134  RH  030%=      5-min Rain = 0
KEA1 210034Z 13011KT 33/13 A3008 RMK A01 T03330134  RH  030%=      5-min Rain = 0
KEA1 210035Z 14012KT 33/13 A3008 RMK A01 T03330134  RH  030%=      5-min Rain = 0
KEA1 210036Z 13014KT 33/13 A3008 RMK A01 T03320134  RH  030%=      5-min Rain = 0
KEA1 210037Z 13013KT 33/13 A3008 RMK A01 T03320133  RH  030%=      5-min Rain = 0
KEA1 210038Z 14011KT 33/13 A3008 RMK A01 T03320133  RH  030%=      5-min Rain = 0
KEA1 210039Z 13013KT 33/13 A3008 RMK A01 T03310133  RH  030%=      5-min Rain = 0
KEA1 210040Z 13010KT 33/13 A3008 RMK A01 T03310133  RH  030%=      5-min Rain = 0
KEA1 210041Z 13009KT 33/13 A3008 RMK A01 T03310133  RH  030%=      5-min Rain = 0
KEA1 210042Z 13012KT 33/13 A3008 RMK A01 T03310132  RH  030%=      5-min Rain = 0
KEA1 210043Z 13011KT 33/13 A3008 RMK A01 T03310132  RH  030%=      5-min Rain = 0
KEA1 210044Z 13012KT 33/13 A3008 RMK A01 T03310131  RH  030%=      5-min Rain = 0
KEA1 210045Z 13010KT 33/13 A3009 RMK A01 T03310131  RH  030%=      5-min Rain = 0
KEA1 210046Z 13011KT 33/13 A3009 RMK A01 T03300131  RH  030%=      5-min Rain = 0
KEA1 210047Z 13009KT 33/13 A3009 RMK A01 T03300131  RH  030%=      5-min Rain = 0
KEA1 210048Z 13011KT 33/13 A3009 RMK A01 T03290131  RH  030%=      5-min Rain = 0
KEA1 210049Z 14010KT 33/13 A3009 RMK A01 T03290131  RH  030%=      5-min Rain = 0
KEA1 210050Z 14011KT 33/13 A3009 RMK A01 T03290131  RH  030%=      5-min Rain = 0
KEA1 210051Z 13010KT 33/13 A3009 RMK A01 T03290131  RH  030%=      5-min Rain = 0
KEA1 210052Z 13011KT 33/13 A3009 RMK A01 T03280130  RH  030%=      5-min Rain = 0
KEA1 210053Z 14011KT 33/13 A3009 RMK A01 T03280131  RH  030%=      5-min Rain = 0
KEA1 210054Z 13009KT 33/13 A3009 RMK A01 T03280131  RH  030%=      5-min Rain = 0
KEA1 210055Z 13010KT 33/13 A3009 RMK A01 T03280132  RH  030%=      5-min Rain = 0
KEA1 210056Z 13011KT 33/13 A3009 RMK A01 T03280131  RH  030%=      5-min Rain = 0
KEA1 210057Z 14011KT 33/13 A3009 RMK A01 T03280131  RH  030%=      5-min Rain = 0
KEA1 210058Z 14011KT 33/13 A3009 RMK A01 T03280131  RH  030%=      5-min Rain = 0
KEA1 210059Z 13010KT 33/13 A3009 RMK A01 T03280132  RH  030%=      5-min Rain = 0
KEA1 210100Z 13010KT 33/13 A3009 RMK A01 T03280132  RH  030%=      5-min Rain = 0
KEA1 210101Z 13010KT 33/13 A3009 RMK A01 T03280132  RH  030%=      5-min Rain = 0
KEA1 210102Z 13011KT 33/13 A3009 RMK A01 T03280133  RH  031%=      5-min Rain = 0
KEA1 210103Z 14010KT 33/13 A3009 RMK A01 T03280132  RH  031%=      5-min Rain = 0
KEA1 210104Z 13010KT 33/13 A3009 RMK A01 T03270132  RH  031%=      5-min Rain = 0
KEA1 210105Z 14008KT 33/13 A3009 RMK A01 T03270132  RH  031%=      5-min Rain = 0
KEA1 210106Z 13010KT 33/13 A3009 RMK A01 T03270133  RH  031%=      5-min Rain = 0
KEA1 210107Z 13011KT 33/13 A3009 RMK A01 T03260132  RH  031%=      5-min Rain = 0
KEA1 210108Z 13010KT 33/13 A3009 RMK A01 T03250132  RH  031%=      5-min Rain = 0
KEA1 210109Z 13008KT 33/13 A3009 RMK A01 T03250132  RH  031%=      5-min Rain = 0
KEA1 210110Z 13011KT 33/13 A3009 RMK A01 T03250132  RH  031%=      5-min Rain = 0
KEA1 210111Z 14010KT 32/13 A3009 RMK A01 T03240131  RH  031%=      5-min Rain = 0
KEA1 210112Z 13009KT 32/13 A3009 RMK A01 T03240131  RH  031%=      5-min Rain = 0
KEA1 210113Z 14009KT 32/13 A3009 RMK A01 T03230131  RH  031%=      5-min Rain = 0
KEA1 210114Z 14010KT 32/13 A3009 RMK A01 T03230131  RH  031%=      5-min Rain = 0
KEA1 210115Z 14010KT 32/13 A3009 RMK A01 T03220130  RH  031%=      5-min Rain = 0
KEA1 210116Z 14009KT 32/13 A3009 RMK A01 T03220131  RH  031%=      5-min Rain = 0
KEA1 210117Z 14009KT 32/13 A3009 RMK A01 T03220130  RH  031%=      5-min Rain = 0
KEA1 210118Z 14010KT 32/13 A3009 RMK A01 T03210130  RH  031%=      5-min Rain = 0
KEA1 210119Z 14009KT 32/13 A3009 RMK A01 T03210130  RH  031%=      5-min Rain = 0
KEA1 210120Z 14010KT 32/13 A3009 RMK A01 T03200130  RH  031%=      5-min Rain = 0
KEA1 210121Z 14009KT 32/13 A3009 RMK A01 T03200130  RH  032%=      5-min Rain = 0
KEA1 210122Z 13009KT 32/13 A3009 RMK A01 T03190130  RH  032%=      5-min Rain = 0
KEA1 210123Z 14009KT 32/13 A3009 RMK A01 T03190130  RH  032%=      5-min Rain = 0
KEA1 210124Z 14009KT 32/13 A3009 RMK A01 T03180130  RH  032%=      5-min Rain = 0
KEA1 210125Z 14009KT 32/13 A3009 RMK A01 T03170129  RH  032%=      5-min Rain = 0
KEA1 210126Z 14009KT 32/13 A3009 RMK A01 T03170130  RH  032%=      5-min Rain = 0
KEA1 210127Z 14009KT 32/13 A3009 RMK A01 T03170129  RH  032%=      5-min Rain = 0
KEA1 210128Z 14008KT 32/13 A3009 RMK A01 T03160129  RH  032%=      5-min Rain = 0
KEA1 210129Z 14010KT 32/13 A3009 RMK A01 T03150129  RH  032%=      5-min Rain = 0
KEA1 210130Z 14009KT 32/13 A3009 RMK A01 T03150129  RH  032%=      5-min Rain = 0
KEA1 210131Z 14008KT 32/13 A3009 RMK A01 T03150130  RH  032%=      5-min Rain = 0
KEA1 210132Z 14008KT 32/13 A3009 RMK A01 T03150130  RH  032%=      5-min Rain = 0
KEA1 210133Z 14008KT 31/13 A3009 RMK A01 T03140130  RH  033%=      5-min Rain = 0
KEA1 210134Z 14009KT 31/13 A3009 RMK A01 T03130130  RH  033%=      5-min Rain = 0
KEA1 210135Z 14008KT 31/13 A3009 RMK A01 T03120130  RH  033%=      5-min Rain = 0
KEA1 210136Z 14009KT 31/13 A3009 RMK A01 T03120131  RH  033%=      5-min Rain = 0
KEA1 210137Z 14009KT 31/13 A3009 RMK A01 T03110131  RH  033%=      5-min Rain = 0
KEA1 210138Z 14008KT 31/13 A3009 RMK A01 T03100131  RH  033%=      5-min Rain = 0
KEA1 210139Z 14008KT 31/13 A3009 RMK A01 T03100131  RH  034%=      5-min Rain = 0
KEA1 210140Z 14007KT 31/13 A3009 RMK A01 T03090131  RH  034%=      5-min Rain = 0
KEA1 210141Z 14008KT 31/13 A3009 RMK A01 T03090131  RH  034%=      5-min Rain = 0
KEA1 210142Z 14008KT 31/13 A3009 RMK A01 T03080131  RH  034%=      5-min Rain = 0
KEA1 210143Z 14008KT 31/13 A3009 RMK A01 T03070131  RH  034%=      5-min Rain = 0
KEA1 210144Z 14008KT 31/13 A3009 RMK A01 T03060131  RH  034%=      5-min Rain = 0
KEA1 210145Z 14008KT 31/13 A3009 RMK A01 T03050131  RH  034%=      5-min Rain = 0
KEA1 210146Z 14008KT 30/13 A3009 RMK A01 T03040131  RH  035%=      5-min Rain = 0
KEA1 210147Z 14008KT 30/13 A3009 RMK A01 T03040131  RH  035%=      5-min Rain = 0
KEA1 210148Z 14008KT 30/13 A3009 RMK A01 T03030131  RH  035%=      5-min Rain = 0
KEA1 210149Z 14008KT 30/13 A3009 RMK A01 T03020131  RH  035%=      5-min Rain = 0
KEA1 210150Z 14008KT 30/13 A3009 RMK A01 T03010131  RH  035%=      5-min Rain = 0
KEA1 210151Z 13008KT 30/13 A3009 RMK A01 T03000131  RH  035%=      5-min Rain = 0
KEA1 210152Z 13008KT 30/13 A3009 RMK A01 T03000131  RH  035%=      5-min Rain = 0
KEA1 210153Z 14008KT 30/13 A3009 RMK A01 T02990131  RH  036%=      5-min Rain = 0
KEA1 210154Z 14008KT 30/13 A3009 RMK A01 T02990131  RH  036%=      5-min Rain = 0
KEA1 210155Z 13008KT 30/13 A3009 RMK A01 T02980131  RH  036%=      5-min Rain = 0
KEA1 210156Z 13008KT 30/13 A3009 RMK A01 T02980131  RH  036%=      5-min Rain = 0
KEA1 210157Z 13008KT 30/13 A3009 RMK A01 T02970131  RH  036%=      5-min Rain = 0
KEA1 210158Z 13008KT 30/13 A3009 RMK A01 T02960131  RH  036%=      5-min Rain = 0
KEA1 210159Z 14008KT 30/13 A3009 RMK A01 T02950131  RH  037%=      5-min Rain = 0
KEA1 210200Z 13009KT 29/13 A3009 RMK A01 T02940132  RH  037%=      5-min Rain = 0
KEA1 210201Z 14009KT 29/13 A3009 RMK A01 T02940132  RH  037%=      5-min Rain = 0
KEA1 210202Z 14008KT 29/13 A3009 RMK A01 T02930132  RH  037%=      5-min Rain = 0
KEA1 210203Z 14009KT 29/13 A3009 RMK A01 T02930131  RH  037%=      5-min Rain = 0
KEA1 210204Z 14008KT 29/13 A3009 RMK A01 T02930132  RH  037%=      5-min Rain = 0
KEA1 210205Z 14008KT 29/13 A301 RMK A01 T02920131  RH  037%=      5-min Rain = 0
KEA1 210206Z 14008KT 29/13 A301 RMK A01 T02920131  RH  037%=      5-min Rain = 0
KEA1 210207Z 14008KT 29/13 A301 RMK A01 T02910131  RH  037%=      5-min Rain = 0
KEA1 210208Z 14007KT 29/13 A301 RMK A01 T02900131  RH  037%=      5-min Rain = 0
KEA1 210209Z 14007KT 29/13 A301 RMK A01 T02900130  RH  037%=      5-min Rain = 0
KEA1 210210Z 15007KT 29/13 A301 RMK A01 T02890130  RH  038%=      5-min Rain = 0
KEA1 210211Z 15007KT 29/13 A301 RMK A01 T02890130  RH  038%=      5-min Rain = 0
KEA1 210212Z 15008KT 29/13 A301 RMK A01 T02880130  RH  038%=      5-min Rain = 0
KEA1 210213Z 15007KT 29/13 A301 RMK A01 T02860130  RH  038%=      5-min Rain = 0
KEA1 210214Z 15007KT 29/13 A301 RMK A01 T02860130  RH  038%=      5-min Rain = 0
KEA1 210215Z 15007KT 28/13 A301 RMK A01 T02840129  RH  038%=      5-min Rain = 0
KEA1 210216Z 15007KT 28/13 A301 RMK A01 T02830130  RH  039%=      5-min Rain = 0
KEA1 210217Z 15007KT 28/13 A301 RMK A01 T02820129  RH  039%=      5-min Rain = 0
KEA1 210218Z 15008KT 28/13 A301 RMK A01 T02820129  RH  039%=      5-min Rain = 0
KEA1 210219Z 15008KT 28/13 A301 RMK A01 T02810129  RH  039%=      5-min Rain = 0
KEA1 210220Z 15008KT 28/13 A301 RMK A01 T02790129  RH  040%=      5-min Rain = 0
KEA1 210221Z 15008KT 28/13 A301 RMK A01 T02780129  RH  040%=      5-min Rain = 0
KEA1 210222Z 15008KT 28/13 A301 RMK A01 T02780129  RH  040%=      5-min Rain = 0
KEA1 210223Z 15008KT 28/13 A301 RMK A01 T02780129  RH  040%=      5-min Rain = 0
KEA1 210224Z 15008KT 28/13 A301 RMK A01 T02770129  RH  040%=      5-min Rain = 0
KEA1 210225Z 15008KT 28/13 A301 RMK A01 T02760129  RH  040%=      5-min Rain = 0
KEA1 210226Z 15008KT 28/13 A301 RMK A01 T02760129  RH  040%=      5-min Rain = 0
KEA1 210227Z 15008KT 28/13 A301 RMK A01 T02760129  RH  040%=      5-min Rain = 0
KEA1 210228Z 15008KT 28/13 A301 RMK A01 T02750129  RH  040%=      5-min Rain = 0
KEA1 210229Z 15008KT 28/13 A301 RMK A01 T02750129  RH  040%=      5-min Rain = 0
KEA1 210230Z 15008KT 27/13 A301 RMK A01 T02740128  RH  040%=      5-min Rain = 0
KEA1 210231Z 15008KT 27/13 A301 RMK A01 T02740128  RH  040%=      5-min Rain = 0
KEA1 210232Z 15008KT 27/13 A301 RMK A01 T02740128  RH  040%=      5-min Rain = 0
KEA1 210233Z 15008KT 27/13 A301 RMK A01 T02740128  RH  040%=      5-min Rain = 0
KEA1 210234Z 15008KT 27/13 A301 RMK A01 T02740128  RH  040%=      5-min Rain = 0
KEA1 210235Z 15008KT 27/13 A3011 RMK A01 T02740127  RH  040%=      5-min Rain = 0
KEA1 210236Z 15008KT 27/13 A3011 RMK A01 T02740127  RH  040%=      5-min Rain = 0
KEA1 210237Z 15008KT 27/13 A3011 RMK A01 T02730127  RH  040%=      5-min Rain = 0
KEA1 210238Z 15008KT 27/13 A3011 RMK A01 T02740127  RH  040%=      5-min Rain = 0
KEA1 210239Z 15008KT 27/13 A3011 RMK A01 T02740127  RH  040%=      5-min Rain = 0
KEA1 210240Z 15008KT 27/13 A3011 RMK A01 T02740127  RH  040%=      5-min Rain = 0
KEA1 210241Z 15008KT 27/13 A3011 RMK A01 T02740127  RH  040%=      5-min Rain = 0
KEA1 210242Z 15008KT 27/13 A3011 RMK A01 T02740127  RH  040%=      5-min Rain = 0
KEA1 210243Z 14008KT 27/13 A3011 RMK A01 T02740127  RH  040%=      5-min Rain = 0
KEA1 210244Z 15008KT 27/13 A3011 RMK A01 T02740127  RH  040%=      5-min Rain = 0
KEA1 210245Z 15008KT 27/13 A3011 RMK A01 T02740127  RH  040%=      5-min Rain = 0
KEA1 210246Z 15008KT 27/13 A3011 RMK A01 T02730127  RH  040%=      5-min Rain = 0
KEA1 210247Z 15008KT 27/13 A3011 RMK A01 T02730127  RH  040%=      5-min Rain = 0
KEA1 210248Z 15008KT 27/13 A3011 RMK A01 T02720127  RH  040%=      5-min Rain = 0
KEA1 210249Z 15008KT 27/13 A3011 RMK A01 T02720127  RH  041%=      5-min Rain = 0
KEA1 210250Z 15008KT 27/13 A3011 RMK A01 T02720127  RH  041%=      5-min Rain = 0
KEA1 210251Z 15008KT 27/13 A3011 RMK A01 T02710127  RH  041%=      5-min Rain = 0
KEA1 210252Z 15008KT 27/13 A3011 RMK A01 T02710127  RH  041%=      5-min Rain = 0
KEA1 210253Z 15008KT 27/13 A3011 RMK A01 T02710127  RH  041%=      5-min Rain = 0
KEA1 210254Z 15008KT 27/13 A3011 RMK A01 T02700127  RH  041%=      5-min Rain = 0
KEA1 210255Z 15008KT 27/13 A3011 RMK A01 T02690127  RH  041%=      5-min Rain = 0
KEA1 210256Z 15008KT 27/13 A3011 RMK A01 T02680127  RH  041%=      5-min Rain = 0
KEA1 210257Z 15008KT 27/13 A3011 RMK A01 T02680127  RH  042%=      5-min Rain = 0
KEA1 210258Z 15008KT 27/13 A3011 RMK A01 T02670127  RH  042%=      5-min Rain = 0
KEA1 210259Z 15008KT 27/13 A3011 RMK A01 T02670127  RH  042%=      5-min Rain = 0
KEA1 210300Z 15008KT 27/13 A3011 RMK A01 T02660127  RH  042%=      5-min Rain = 0
KEA1 210301Z 15009KT 27/13 A3011 RMK A01 T02650126  RH  042%=      5-min Rain = 0
KEA1 210302Z 15009KT 27/13 A3011 RMK A01 T02650126  RH  042%=      5-min Rain = 0
KEA1 210303Z 15009KT 26/13 A3011 RMK A01 T02640126  RH  042%=      5-min Rain = 0
KEA1 210304Z 15008KT 27/13 A3011 RMK A01 T02650127  RH  042%=      5-min Rain = 0
KEA1 210305Z 15008KT 26/13 A3011 RMK A01 T02640126  RH  042%=      5-min Rain = 0
KEA1 210306Z 15008KT 26/13 A3011 RMK A01 T02640126  RH  042%=      5-min Rain = 0
KEA1 210307Z 15008KT 26/13 A3011 RMK A01 T02640126  RH  042%=      5-min Rain = 0
KEA1 210308Z 15008KT 26/13 A3011 RMK A01 T02640126  RH  042%=      5-min Rain = 0
KEA1 210309Z 15008KT 26/13 A3011 RMK A01 T02630126  RH  042%=      5-min Rain = 0
KEA1 210310Z 15008KT 26/13 A3011 RMK A01 T02630126  RH  043%=      5-min Rain = 0
KEA1 210311Z 15008KT 26/13 A3012 RMK A01 T02640127  RH  043%=      5-min Rain = 0
KEA1 210312Z 15008KT 26/13 A3012 RMK A01 T02630126  RH  043%=      5-min Rain = 0
KEA1 210313Z 15008KT 26/13 A3012 RMK A01 T02630126  RH  043%=      5-min Rain = 0
KEA1 210314Z 15008KT 26/13 A3012 RMK A01 T02630126  RH  043%=      5-min Rain = 0
KEA1 210315Z 15008KT 26/13 A3012 RMK A01 T02630126  RH  043%=      5-min Rain = 0
KEA1 210316Z 15008KT 26/13 A3012 RMK A01 T02620126  RH  043%=      5-min Rain = 0
KEA1 210317Z 14007KT 26/13 A3012 RMK A01 T02620127  RH  043%=      5-min Rain = 0
KEA1 210318Z 14007KT 26/13 A3012 RMK A01 T02620127  RH  043%=      5-min Rain = 0
KEA1 210319Z 14007KT 26/13 A3012 RMK A01 T02620127  RH  043%=      5-min Rain = 0
KEA1 210320Z 14008KT 26/13 A3012 RMK A01 T02620127  RH  043%=      5-min Rain = 0
KEA1 210321Z 14008KT 26/13 A3012 RMK A01 T02620127  RH  043%=      5-min Rain = 0
KEA1 210322Z 14008KT 26/13 A3012 RMK A01 T02630127  RH  043%=      5-min Rain = 0
KEA1 210323Z 14008KT 26/13 A3012 RMK A01 T02630127  RH  043%=      5-min Rain = 0
KEA1 210324Z 15007KT 26/13 A3012 RMK A01 T02640128  RH  043%=      5-min Rain = 0
KEA1 210325Z 15007KT 26/13 A3012 RMK A01 T02640128  RH  043%=      5-min Rain = 0
KEA1 210326Z 15007KT 26/13 A3012 RMK A01 T02640128  RH  043%=      5-min Rain = 0
KEA1 210327Z 15008KT 26/13 A3012 RMK A01 T02640128  RH  043%=      5-min Rain = 0
KEA1 210328Z 15008KT 26/13 A3012 RMK A01 T02640128  RH  043%=      5-min Rain = 0
KEA1 210329Z 15008KT 26/13 A3012 RMK A01 T02630128  RH  043%=      5-min Rain = 0
KEA1 210330Z 15007KT 26/13 A3012 RMK A01 T02630128  RH  043%=      5-min Rain = 0
KEA1 210331Z 15008KT 26/13 A3012 RMK A01 T02630128  RH  043%=      5-min Rain = 0
KEA1 210332Z 15008KT 26/13 A3012 RMK A01 T02630128  RH  043%=      5-min Rain = 0
KEA1 210333Z 15008KT 26/13 A3012 RMK A01 T02630129  RH  043%=      5-min Rain = 0
KEA1 210334Z 15008KT 26/13 A3012 RMK A01 T02630129  RH  043%=      5-min Rain = 0
KEA1 210335Z 15008KT 26/13 A3012 RMK A01 T02630129  RH  043%=      5-min Rain = 0
KEA1 210336Z 15008KT 26/13 A3012 RMK A01 T02630128  RH  043%=      5-min Rain = 0
KEA1 210337Z 15008KT 26/13 A3012 RMK A01 T02630129  RH  043%=      5-min Rain = 0
KEA1 210338Z 15008KT 26/13 A3012 RMK A01 T02640129  RH  043%=      5-min Rain = 0
KEA1 210339Z 15008KT 26/13 A3012 RMK A01 T02630129  RH  043%=      5-min Rain = 0
KEA1 210340Z 15008KT 26/13 A3012 RMK A01 T02640129  RH  043%=      5-min Rain = 0
KEA1 210341Z 15008KT 26/13 A3012 RMK A01 T02640130  RH  043%=      5-min Rain = 0
KEA1 210342Z 15008KT 26/13 A3012 RMK A01 T02640130  RH  043%=      5-min Rain = 0
KEA1 210343Z 15009KT 26/13 A3012 RMK A01 T02640130  RH  043%=      5-min Rain = 0
KEA1 210344Z 15008KT 27/13 A3012 RMK A01 T02650130  RH  043%=      5-min Rain = 0
KEA1 210345Z 15008KT 27/13 A3012 RMK A01 T02660131  RH  043%=      5-min Rain = 0
KEA1 210346Z 15008KT 27/13 A3012 RMK A01 T02660131  RH  043%=      5-min Rain = 0
KEA1 210347Z 15009KT 27/13 A3012 RMK A01 T02660131  RH  043%=      5-min Rain = 0
KEA1 210348Z 15009KT 27/13 A3012 RMK A01 T02660131  RH  043%=      5-min Rain = 0
KEA1 210349Z 15009KT 27/13 A3012 RMK A01 T02660131  RH  043%=      5-min Rain = 0
KEA1 210350Z 15008KT 27/13 A3012 RMK A01 T02660132  RH  043%=      5-min Rain = 0
KEA1 210351Z 15008KT 27/13 A3012 RMK A01 T02660132  RH  043%=      5-min Rain = 0
KEA1 210352Z 15009KT 27/13 A3012 RMK A01 T02660132  RH  043%=      5-min Rain = 0
KEA1 210353Z 15009KT 27/13 A3012 RMK A01 T02660132  RH  043%=      5-min Rain = 0
KEA1 210354Z 15009KT 27/13 A3012 RMK A01 T02660132  RH  044%=      5-min Rain = 0
KEA1 210355Z 15009KT 27/13 A3012 RMK A01 T02660132  RH  044%=      5-min Rain = 0
KEA1 210356Z 15010KT 27/13 A3012 RMK A01 T02660132  RH  044%=      5-min Rain = 0
KEA1 210357Z 15009KT 27/13 A3012 RMK A01 T02660132  RH  044%=      5-min Rain = 0
KEA1 210358Z 15009KT 27/13 A3012 RMK A01 T02660132  RH  044%=      5-min Rain = 0
KEA1 210359Z 15009KT 27/13 A3011 RMK A01 T02660132  RH  044%=      5-min Rain = 0
KEA1 210400Z 15009KT 27/13 A3011 RMK A01 T02660132  RH  044%=      5-min Rain = 0
KEA1 210401Z 15009KT 27/13 A3011 RMK A01 T02660132  RH  043%=      5-min Rain = 0
KEA1 210402Z 15009KT 27/13 A3011 RMK A01 T02660132  RH  043%=      5-min Rain = 0
KEA1 210403Z 15009KT 27/13 A3011 RMK A01 T02660132  RH  044%=      5-min Rain = 0
KEA1 210404Z 15009KT 27/13 A3011 RMK A01 T02650132  RH  044%=      5-min Rain = 0
KEA1 210405Z 15009KT 27/13 A3011 RMK A01 T02650132  RH  044%=      5-min Rain = 0
KEA1 210406Z 15009KT 27/13 A3011 RMK A01 T02650132  RH  044%=      5-min Rain = 0
KEA1 210407Z 15008KT 27/13 A3011 RMK A01 T02650132  RH  044%=      5-min Rain = 0
KEA1 210408Z 15009KT 27/13 A3011 RMK A01 T02650132  RH  044%=      5-min Rain = 0
KEA1 210409Z 15009KT 27/13 A3011 RMK A01 T02650131  RH  044%=      5-min Rain = 0
KEA1 210410Z 16008KT 26/13 A3011 RMK A01 T02640131  RH  044%=      5-min Rain = 0
KEA1 210411Z 15008KT 26/13 A3011 RMK A01 T02640131  RH  044%=      5-min Rain = 0
KEA1 210412Z 15008KT 26/13 A3011 RMK A01 T02640131  RH  044%=      5-min Rain = 0
KEA1 210413Z 15008KT 26/13 A3011 RMK A01 T02640131  RH  044%=      5-min Rain = 0
KEA1 210414Z 15008KT 26/13 A3011 RMK A01 T02630131  RH  044%=      5-min Rain = 0
KEA1 210415Z 15007KT 26/13 A3011 RMK A01 T02630131  RH  044%=      5-min Rain = 0
KEA1 210416Z 15007KT 26/13 A3011 RMK A01 T02620131  RH  044%=      5-min Rain = 0
KEA1 210417Z 15007KT 26/13 A3011 RMK A01 T02610131  RH  045%=      5-min Rain = 0
KEA1 210418Z 15007KT 26/13 A3011 RMK A01 T02600130  RH  045%=      5-min Rain = 0
KEA1 210419Z 15007KT 26/13 A3011 RMK A01 T02590130  RH  045%=      5-min Rain = 0
KEA1 210420Z 15007KT 26/13 A3011 RMK A01 T02580130  RH  045%=      5-min Rain = 0
KEA1 210421Z 14007KT 26/13 A3011 RMK A01 T02570130  RH  045%=      5-min Rain = 0
KEA1 210422Z 14007KT 26/13 A3012 RMK A01 T02560130  RH  045%=      5-min Rain = 0
KEA1 210423Z 14008KT 26/13 A3012 RMK A01 T02560130  RH  046%=      5-min Rain = 0
KEA1 210424Z 15008KT 26/13 A3012 RMK A01 T02550130  RH  046%=      5-min Rain = 0
KEA1 210425Z 15008KT 25/13 A3012 RMK A01 T02540129  RH  046%=      5-min Rain = 0
KEA1 210426Z 15008KT 25/13 A3012 RMK A01 T02540130  RH  046%=      5-min Rain = 0
KEA1 210427Z 15008KT 25/13 A3012 RMK A01 T02530129  RH  046%=      5-min Rain = 0
KEA1 210428Z 15008KT 25/13 A3012 RMK A01 T02530129  RH  046%=      5-min Rain = 0
KEA1 210429Z 15008KT 25/13 A3012 RMK A01 T02530129  RH  046%=      5-min Rain = 0
KEA1 210430Z 15008KT 25/13 A3012 RMK A01 T02520129  RH  046%=      5-min Rain = 0
KEA1 210431Z 15008KT 25/13 A3012 RMK A01 T02520129  RH  046%=      5-min Rain = 0
KEA1 210432Z 15008KT 25/13 A3012 RMK A01 T02510128  RH  046%=      5-min Rain = 0
KEA1 210433Z 15008KT 25/13 A3012 RMK A01 T02510128  RH  046%=      5-min Rain = 0
KEA1 210434Z 15008KT 25/13 A3012 RMK A01 T02510128  RH  046%=      5-min Rain = 0
KEA1 210435Z 15008KT 25/13 A3012 RMK A01 T02510128  RH  046%=      5-min Rain = 0
KEA1 210436Z 15008KT 25/13 A3012 RMK A01 T02510128  RH  046%=      5-min Rain = 0
KEA1 210437Z 14008KT 25/13 A3012 RMK A01 T02510128  RH  046%=      5-min Rain = 0
KEA1 210438Z 14008KT 25/13 A3012 RMK A01 T02500128  RH  046%=      5-min Rain = 0
KEA1 210439Z 15008KT 25/13 A3012 RMK A01 T02500128  RH  047%=      5-min Rain = 0
KEA1 210440Z 15008KT 25/13 A3012 RMK A01 T02500128  RH  047%=      5-min Rain = 0
KEA1 210441Z 14008KT 25/13 A3012 RMK A01 T02490128  RH  047%=      5-min Rain = 0
KEA1 210442Z 14008KT 25/13 A3012 RMK A01 T02480128  RH  047%=      5-min Rain = 0
KEA1 210443Z 15009KT 25/13 A3012 RMK A01 T02480128  RH  047%=      5-min Rain = 0
KEA1 210444Z 15008KT 25/13 A3012 RMK A01 T02470128  RH  047%=      5-min Rain = 0
KEA1 210445Z 15008KT 25/13 A3012 RMK A01 T02470128  RH  047%=      5-min Rain = 0
KEA1 210446Z 15008KT 25/13 A3012 RMK A01 T02470128  RH  047%=      5-min Rain = 0
KEA1 210447Z 15008KT 25/13 A3012 RMK A01 T02460128  RH  048%=      5-min Rain = 0
KEA1 210448Z 15008KT 25/13 A3012 RMK A01 T02460127  RH  048%=      5-min Rain = 0
KEA1 210449Z 15008KT 25/13 A3012 RMK A01 T02460128  RH  048%=      5-min Rain = 0
KEA1 210450Z 15008KT 25/13 A3012 RMK A01 T02450128  RH  048%=      5-min Rain = 0
KEA1 210451Z 15008KT 24/13 A3012 RMK A01 T02440127  RH  048%=      5-min Rain = 0
KEA1 210452Z 15008KT 24/13 A3012 RMK A01 T02430127  RH  048%=      5-min Rain = 0
KEA1 210453Z 15008KT 24/13 A3012 RMK A01 T02430127  RH  048%=      5-min Rain = 0
KEA1 210454Z 15009KT 24/13 A3012 RMK A01 T02420127  RH  049%=      5-min Rain = 0
KEA1 210455Z 15008KT 24/13 A3012 RMK A01 T02410127  RH  049%=      5-min Rain = 0
KEA1 210456Z 15008KT 24/13 A3012 RMK A01 T02410127  RH  049%=      5-min Rain = 0
KEA1 210457Z 15008KT 24/13 A3012 RMK A01 T02400127  RH  049%=      5-min Rain = 0
KEA1 210458Z 15008KT 24/13 A3012 RMK A01 T02400127  RH  049%=      5-min Rain = 0
KEA1 210459Z 15008KT 24/13 A3012 RMK A01 T02390126  RH  049%=      5-min Rain = 0

Page generated in 0.1467 seconds.